M I D A S
Marine Information and Data Acquisition System
Tripno 2025 of the Zeeleeuw from 2010-10-26 07:02:43 to 2010-10-26 15:31:46
Back to CruiseResearch ActivitiesStationsMapUnderway DataData graphs

EquipmentUnitsComment
TimeDGPSUTC
LatitudeDGPSDM.mWGS84
LongitudeDGPSDM.mWGS84
TemperatureSBE03/SBE38deg celciusITS90
ConductivitySBE21S/mITS90
SalinitySBE21 Practical Salinity Units
ChlorophylAChelsea fluorimeterg/lCalibrated in Aceton
Missing or incorrect values are displayed as -999
Sea surface data collected by the RV Zeeleeuw from 2010-10-26 06:59:19 to 2010-10-26 15:36:40
                                                                                    Next 1000 lines
Time Latitude Longitude Temperature Conductivity Salinity ChlorophylA
2010-10-26 06:59:28 51°13.661 2°55.963 16.3835 0.070677 0.400215 -0.652328
2010-10-26 06:59:33 51°13.661 2°55.963 16.3853 0.070677 0.400221 -0.687152
2010-10-26 06:59:38 51°13.661 2°55.963 16.3853 0.070677 0.400221 -0.687152
2010-10-26 06:59:43 51°13.661 2°55.963 16.3874 0.070677 0.400215 -0.687152
2010-10-26 06:59:48 51°13.662 2°55.963 16.3884 0.070677 0.400215 -0.652328
2010-10-26 06:59:53 51°13.662 2°55.962 16.3853 0.070677 0.400221 -0.687152
2010-10-26 06:59:58 51°13.662 2°55.962 16.3881 0.070677 0.400235 -0.687152
2010-10-26 07:00:03 51°13.662 2°55.962 16.3882 0.070677 0.400235 -0.687152
2010-10-26 07:00:07 51°13.662 2°55.962 16.397 0.070677 0.400235 -0.687152
2010-10-26 07:00:12 51°13.662 2°55.962 16.3927 0.070677 0.400235 -0.652328
2010-10-26 07:00:17 51°13.662 2°55.962 16.3894 0.070677 0.400242 -0.652328
2010-10-26 07:00:22 51°13.662 2°55.961 16.391 0.070677 0.400242 -0.687152
2010-10-26 07:00:27 51°13.663 2°55.961 16.3935 0.070677 0.400242 -0.687152
2010-10-26 07:00:31 51°13.662 2°55.961 16.3939 0.070677 0.400248 -0.652328
2010-10-26 07:00:36 51°13.663 2°55.961 16.3957 0.070677 0.400248 -0.652328
2010-10-26 07:00:41 51°13.663 2°55.961 16.3938 0.070677 0.400255 -0.687152
2010-10-26 07:00:46 51°13.663 2°55.961 16.3966 0.070677 0.400262 -0.687152
2010-10-26 07:00:51 51°13.663 2°55.961 16.3947 0.070677 0.400262 -0.652328
2010-10-26 07:00:55 51°13.663 2°55.961 16.3951 0.070677 0.400262 -0.687152
2010-10-26 07:01:00 51°13.663 2°55.961 16.3945 0.070677 0.400262 -0.687152
2010-10-26 07:01:05 51°13.663 2°55.961 16.3935 0.070677 0.400262 -0.687152
2010-10-26 07:01:10 51°13.663 2°55.961 16.3911 0.070677 0.400275 -0.652328
2010-10-26 07:01:15 51°13.663 2°55.961 16.3913 0.070677 0.400275 -0.652328
2010-10-26 07:01:20 51°13.662 2°55.961 16.3927 0.070677 0.400275 -0.687152
2010-10-26 07:01:25 51°13.662 2°55.961 16.3957 0.070677 0.400275 -0.652328
2010-10-26 07:01:30 51°13.662 2°55.961 16.3958 0.070677 0.400282 -0.687152
2010-10-26 07:01:35 51°13.662 2°55.961 16.3955 0.070677 0.400282 -0.687152
2010-10-26 07:01:40 51°13.662 2°55.961 16.3963 0.070677 0.400289 -0.652328
2010-10-26 07:01:45 51°13.663 2°55.961 16.3957 0.070677 0.400289 -0.652328
2010-10-26 07:01:50 51°13.662 2°55.961 16.3947 0.070677 0.400296 -0.721976
2010-10-26 07:01:55 51°13.663 2°55.961 16.3947 0.070677 0.400296 -0.617504
2010-10-26 07:02:00 51°13.663 2°55.961 16.3969 0.070677 0.400302 -0.617504
2010-10-26 07:02:05 51°13.663 2°55.961 16.3957 0.070677 0.400302 -0.617504
2010-10-26 07:02:10 51°13.662 2°55.961 16.3965 0.070677 0.400309 -0.687152
2010-10-26 07:02:15 51°13.662 2°55.96 16.3971 0.070677 0.400309 -0.652328
2010-10-26 07:02:20 51°13.662 2°55.96 16.3968 0.070677 0.400316 -0.652328
2010-10-26 07:02:25 51°13.663 2°55.96 16.3963 0.070677 0.400316 -0.652328
2010-10-26 07:02:30 51°13.663 2°55.96 16.3954 0.070677 0.400316 -0.652328
2010-10-26 07:02:35 51°13.663 2°55.96 16.3936 0.070677 0.400316 -0.652328
2010-10-26 07:02:40 51°13.663 2°55.96 16.3945 0.070677 0.400329 -0.652328
2010-10-26 07:02:45 51°13.663 2°55.961 16.3964 0.070677 0.400329 -0.721976
2010-10-26 07:02:50 51°13.664 2°55.961 16.3901 0.070677 0.400329 -0.687152
2010-10-26 07:02:55 51°13.663 2°55.961 16.3863 0.070677 0.400336 -0.652328
2010-10-26 07:03:00 51°13.663 2°55.961 16.3864 0.070677 0.400343 -0.687152
2010-10-26 07:03:05 51°13.662 2°55.961 16.3908 0.070677 0.400343 -0.687152
2010-10-26 07:03:10 51°13.662 2°55.961 16.3917 0.070677 0.400343 -0.652328
2010-10-26 07:03:15 51°13.663 2°55.961 16.3874 0.070677 0.40035 -0.687152
2010-10-26 07:03:20 51°13.663 2°55.961 16.3867 0.070677 0.40035 -0.687152
2010-10-26 07:03:25 51°13.664 2°55.961 16.3888 0.070677 0.40035 -0.687152
2010-10-26 07:03:30 51°13.663 2°55.961 16.3896 0.070677 0.400356 -0.687152
2010-10-26 07:03:35 51°13.663 2°55.961 16.3889 0.070677 0.400356 -0.687152
2010-10-26 07:03:40 51°13.663 2°55.961 16.3895 0.070677 0.400356 -0.687152
2010-10-26 07:03:45 51°13.663 2°55.961 16.3869 0.070677 0.40037 -0.652328
2010-10-26 07:03:50 51°13.664 2°55.961 16.3878 0.070677 0.40037 -0.652328
2010-10-26 07:03:55 51°13.663 2°55.961 16.392 0.070677 0.40037 -0.687152
2010-10-26 07:04:00 51°13.662 2°55.961 16.3934 0.070677 0.40037 -0.652328
2010-10-26 07:04:05 51°13.663 2°55.961 16.3958 0.070677 0.40037 -0.652328
2010-10-26 07:04:10 51°13.663 2°55.961 16.397 0.070677 0.400384 -0.617504
2010-10-26 07:04:15 51°13.663 2°55.961 16.4 0.070677 0.400384 -0.687152
2010-10-26 07:04:20 51°13.663 2°55.96 16.4008 0.070677 0.400397 -0.687152
2010-10-26 07:04:25 51°13.663 2°55.96 16.4003 0.070677 0.40039 -0.687152
2010-10-26 07:04:30 51°13.663 2°55.96 16.3948 0.070677 0.400397 -0.652328
2010-10-26 07:04:35 51°13.663 2°55.96 16.396 0.070677 0.400397 -0.652328
2010-10-26 07:04:40 51°13.663 2°55.96 16.3957 0.070677 0.400397 -0.652328
2010-10-26 07:04:45 51°13.664 2°55.96 16.3966 0.070677 0.400404 -0.687152
2010-10-26 07:04:50 51°13.664 2°55.96 16.3984 0.070677 0.400411 -0.652328
2010-10-26 07:04:55 51°13.664 2°55.96 16.4008 0.070677 0.400417 -0.652328
2010-10-26 07:05:00 51°13.663 2°55.96 16.4026 0.070677 0.400417 -0.687152
2010-10-26 07:05:05 51°13.664 2°55.96 16.4062 0.070677 0.400417 -0.687152
2010-10-26 07:05:10 51°13.664 2°55.96 16.407 0.070677 0.400424 -0.652328
2010-10-26 07:05:15 51°13.664 2°55.96 16.4096 0.070677 0.400431 -0.652328
2010-10-26 07:05:20 51°13.664 2°55.96 16.4118 0.070677 0.400431 -0.652328
2010-10-26 07:05:25 51°13.664 2°55.96 16.4163 0.070677 0.400431 -0.687152
2010-10-26 07:05:30 51°13.664 2°55.96 16.4204 0.070677 0.400444 -0.652328
2010-10-26 07:05:35 51°13.664 2°55.96 16.423 0.070677 0.400444 -0.652328
2010-10-26 07:05:40 51°13.664 2°55.96 16.4263 0.070677 0.400444 -0.652328
2010-10-26 07:05:45 51°13.663 2°55.96 16.4291 0.070677 0.400451 -0.687152
2010-10-26 07:05:50 51°13.662 2°55.96 16.4293 0.070677 0.400444 -0.687152
2010-10-26 07:05:55 51°13.663 2°55.96 16.4302 0.070677 0.400451 -0.652328
2010-10-26 07:06:00 51°13.663 2°55.96 16.4268 0.070677 0.400465 -0.687152
2010-10-26 07:06:05 51°13.663 2°55.96 16.426 0.070677 0.400465 -0.687152
2010-10-26 07:06:10 51°13.663 2°55.96 16.424 0.070677 0.400458 -0.687152
2010-10-26 07:06:15 51°13.663 2°55.96 16.4267 0.070677 0.400465 -0.652328
2010-10-26 07:06:20 51°13.663 2°55.96 16.4283 0.070677 0.400471 -0.687152
2010-10-26 07:06:24 51°13.663 2°55.96 16.427 0.070677 0.400478 -0.687152
2010-10-26 07:06:30 51°13.663 2°55.96 16.4436 0.070677 0.400485 -0.687152
2010-10-26 07:06:35 51°13.663 2°55.96 16.4297 0.070677 0.400485 -0.687152
2010-10-26 07:06:40 51°13.663 2°55.96 16.3986 0.070677 0.400492 -0.687152
2010-10-26 07:06:45 51°13.663 2°55.96 16.4211 0.070677 0.400499 -0.687152
2010-10-26 07:06:50 51°13.663 2°55.96 16.4279 0.070677 0.400499 -0.652328
2010-10-26 07:06:55 51°13.663 2°55.959 16.4249 0.070677 0.400499 -0.687152
2010-10-26 07:07:00 51°13.663 2°55.96 16.4239 0.070573 0.399902 -0.652328
2010-10-26 07:07:05 51°13.663 2°55.96 16.4221 0.070573 0.399902 -0.652328
2010-10-26 07:07:10 51°13.663 2°55.96 16.423 0.070677 0.400505 -0.687152
2010-10-26 07:07:15 51°13.663 2°55.96 16.4242 0.070677 0.400512 -0.687152
2010-10-26 07:07:20 51°13.663 2°55.96 16.4259 0.070573 0.399902 -0.652328
2010-10-26 07:07:25 51°13.663 2°55.96 16.4255 0.070677 0.400519 -0.652328
2010-10-26 07:07:30 51°13.663 2°55.96 16.4218 0.070677 0.400526 -0.652328
2010-10-26 07:07:35 51°13.663 2°55.96 16.4204 0.070677 0.400526 -0.652328
2010-10-26 07:07:40 51°13.662 2°55.96 16.4208 0.070677 0.400526 -0.687152
2010-10-26 07:07:45 51°13.662 2°55.96 16.4231 0.070677 0.400526 -0.687152
2010-10-26 07:07:50 51°13.662 2°55.96 16.4256 0.070573 0.399922 -0.687152
2010-10-26 07:07:55 51°13.662 2°55.96 16.4277 0.070573 0.399922 -0.652328
2010-10-26 07:08:00 51°13.662 2°55.96 16.4294 0.070677 0.400539 -0.687152
2010-10-26 07:08:05 51°13.662 2°55.96 16.4306 0.070677 0.400539 -0.687152
2010-10-26 07:08:10 51°13.662 2°55.96 16.43 0.070677 0.400539 -0.652328
2010-10-26 07:08:15 51°13.662 2°55.96 16.4297 0.070573 0.399936 -0.652328
2010-10-26 07:08:20 51°13.662 2°55.96 16.4359 0.070573 0.399943 -0.652328
2010-10-26 07:08:25 51°13.662 2°55.96 16.4427 0.070573 0.39995 -0.687152
2010-10-26 07:08:30 51°13.662 2°55.96 16.4449 0.070573 0.399956 -0.687152
2010-10-26 07:08:35 51°13.662 2°55.96 16.4473 0.070573 0.399956 -0.687152
2010-10-26 07:08:40 51°13.661 2°55.96 16.4221 0.070573 0.399956 -0.652328
2010-10-26 07:08:45 51°13.661 2°55.959 16.3754 0.070573 0.399963 -0.652328
2010-10-26 07:08:50 51°13.662 2°55.959 16.3594 0.070573 0.39997 -0.687152
2010-10-26 07:08:55 51°13.662 2°55.958 16.3529 0.070573 0.399977 -0.652328
2010-10-26 07:09:00 51°13.662 2°55.957 16.2749 0.070677 0.400587 -0.687152
2010-10-26 07:09:05 51°13.663 2°55.955 16.2275 0.070677 0.400587 -0.687152
2010-10-26 07:09:10 51°13.664 2°55.953 16.2868 0.070573 0.399983 -0.687152
2010-10-26 07:09:15 51°13.665 2°55.95 16.2825 0.070573 0.399997 -0.652328
2010-10-26 07:09:20 51°13.666 2°55.946 16.2845 0.070573 0.399997 -0.652328
2010-10-26 07:09:26 51°13.667 2°55.941 16.2703 0.070573 0.400004 -0.687152
2010-10-26 07:09:31 51°13.669 2°55.936 16.2756 0.070573 0.400004 -0.652328
2010-10-26 07:09:37 51°13.67 2°55.929 16.261 0.070573 0.400004 -0.652328
2010-10-26 07:09:43 51°13.672 2°55.921 16.3007 0.070573 0.40001 -0.687152
2010-10-26 07:09:48 51°13.674 2°55.913 16.278 0.070573 0.40001 -0.652328
2010-10-26 07:09:54 51°13.676 2°55.904 16.2932 0.070573 0.400017 -0.687152
2010-10-26 07:09:59 51°13.677 2°55.895 16.327 0.070573 0.400024 -0.687152
2010-10-26 07:10:04 51°13.679 2°55.886 16.3207 0.070573 0.400024 -0.652328
2010-10-26 07:10:09 51°13.68 2°55.876 16.3354 0.070573 0.400024 -0.652328
2010-10-26 07:10:14 51°13.682 2°55.866 16.3346 0.070573 0.400031 -0.687152
2010-10-26 07:10:19 51°13.683 2°55.857 16.4132 0.070573 0.400031 -0.652328
2010-10-26 07:10:24 51°13.684 2°55.847 16.3657 0.070573 0.400031 -0.687152
2010-10-26 07:10:29 51°13.685 2°55.838 16.3736 0.070573 0.400031 -0.652328
2010-10-26 07:10:34 51°13.686 2°55.829 16.3499 0.070573 0.400037 -0.687152
2010-10-26 07:10:39 51°13.687 2°55.82 16.3568 0.070573 0.400037 -0.687152
2010-10-26 07:10:43 51°13.687 2°55.814 16.33 0.070573 0.400031 -0.687152
2010-10-26 07:10:49 51°13.688 2°55.803 16.3506 0.070573 0.400044 -0.687152
2010-10-26 07:10:54 51°13.689 2°55.794 16.3473 0.070573 0.400051 -0.652328
2010-10-26 07:10:59 51°13.689 2°55.786 16.3618 0.070573 0.400051 -0.687152
2010-10-26 07:11:03 51°13.689 2°55.779 16.3456 0.070573 0.400044 -0.687152
2010-10-26 07:11:09 51°13.689 2°55.77 16.3818 0.070573 0.400044 -0.687152
2010-10-26 07:11:14 51°13.689 2°55.764 16.3791 0.070573 0.400051 -0.687152
2010-10-26 07:11:19 51°13.689 2°55.759 16.4231 0.070573 0.400058 -0.652328
2010-10-26 07:11:23 51°13.689 2°55.756 16.4198 0.070573 0.400051 -0.687152
2010-10-26 07:11:28 51°13.689 2°55.754 16.494 0.070573 0.400051 -0.687152
2010-10-26 07:11:33 51°13.69 2°55.752 16.3961 0.070573 0.400058 -0.687152
2010-10-26 07:11:38 51°13.69 2°55.752 16.4269 0.070573 0.400058 -0.687152
2010-10-26 07:11:43 51°13.691 2°55.752 16.3713 0.070573 0.400044 -0.652328
2010-10-26 07:11:47 51°13.692 2°55.752 16.3875 0.070573 0.400051 -0.687152
2010-10-26 07:11:52 51°13.693 2°55.752 16.3433 0.070573 0.400044 -0.687152
2010-10-26 07:11:58 51°13.694 2°55.752 16.4 0.070573 0.400044 -0.652328
2010-10-26 07:12:03 51°13.695 2°55.752 16.339 0.070573 0.400051 -0.652328
2010-10-26 07:12:07 51°13.696 2°55.752 16.4041 0.070573 0.400051 -0.652328
2010-10-26 07:12:12 51°13.698 2°55.752 16.3854 0.070573 0.400051 -0.652328
2010-10-26 07:12:17 51°13.699 2°55.752 16.3899 0.070573 0.400064 -0.652328
2010-10-26 07:12:22 51°13.701 2°55.752 16.3861 0.070573 0.400071 -0.687152
2010-10-26 07:12:27 51°13.703 2°55.752 16.3886 0.070573 0.400078 -0.652328
2010-10-26 07:12:31 51°13.704 2°55.752 16.3864 0.070573 0.400085 -0.652328
2010-10-26 07:12:36 51°13.707 2°55.751 16.4023 0.070573 0.400085 -0.652328
2010-10-26 07:12:41 51°13.709 2°55.751 16.4076 0.070573 0.400085 -0.687152
2010-10-26 07:12:46 51°13.711 2°55.75 16.4676 0.070573 0.400092 -0.617504
2010-10-26 07:12:51 51°13.714 2°55.749 16.4594 0.070573 0.400078 -0.652328
2010-10-26 07:12:56 51°13.717 2°55.747 16.5042 0.070573 0.400071 -0.687152
2010-10-26 07:13:00 51°13.719 2°55.746 16.5062 0.070573 0.400064 -0.652328
2010-10-26 07:13:06 51°13.723 2°55.742 16.5049 0.070573 0.400064 -0.652328
2010-10-26 07:13:12 51°13.727 2°55.738 16.4761 0.070573 0.400064 -0.687152
2010-10-26 07:13:16 51°13.731 2°55.734 16.4594 0.070573 0.400064 -0.652328
2010-10-26 07:13:21 51°13.735 2°55.729 16.4367 0.070573 0.400078 -0.652328
2010-10-26 07:13:25 51°13.738 2°55.725 16.3964 0.070573 0.400085 -0.652328
2010-10-26 07:13:31 51°13.745 2°55.718 16.3772 0.070573 0.400085 -0.652328
2010-10-26 07:13:36 51°13.75 2°55.711 16.3421 0.070573 0.400085 -0.652328
2010-10-26 07:13:40 51°13.754 2°55.706 16.355 0.070573 0.400105 -0.652328
2010-10-26 07:13:45 51°13.76 2°55.698 16.3615 0.070573 0.400112 -0.687152
2010-10-26 07:13:51 51°13.767 2°55.689 16.3286 0.070573 0.400119 -0.652328
2010-10-26 07:13:56 51°13.774 2°55.681 16.2346 0.070573 0.400132 -0.617504
2010-10-26 07:14:00 51°13.78 2°55.675 16.2123 0.070573 0.400146 -0.687152
2010-10-26 07:14:05 51°13.788 2°55.667 16.1873 0.070573 0.400146 -0.687152
2010-10-26 07:14:10 51°13.795 2°55.658 16.1828 0.070573 0.400166 -0.652328
2010-10-26 07:14:16 51°13.805 2°55.649 16.1642 0.070573 0.400179 -0.687152
2010-10-26 07:14:20 51°13.812 2°55.642 16.146 0.070573 0.400193 -0.652328
2010-10-26 07:14:25 51°13.822 2°55.635 16.1455 0.070573 0.400207 -0.687152
2010-10-26 07:14:30 51°13.831 2°55.627 16.1577 0.070573 0.400213 -0.652328
2010-10-26 07:14:35 51°13.841 2°55.62 16.1666 0.070573 0.400213 -0.652328
2010-10-26 07:14:40 51°13.851 2°55.612 16.1914 0.070573 0.40022 -0.687152
2010-10-26 07:14:45 51°13.861 2°55.605 16.2055 0.070573 0.400227 -0.652328
2010-10-26 07:14:50 51°13.871 2°55.597 16.2281 0.070573 0.400227 -0.687152
2010-10-26 07:14:55 51°13.881 2°55.59 16.1466 0.070573 0.400234 -0.652328
2010-10-26 07:15:00 51°13.892 2°55.583 16.2249 0.070573 0.40024 -0.687152
2010-10-26 07:15:05 51°13.902 2°55.575 16.2474 0.070573 0.40024 -0.687152
2010-10-26 07:15:10 51°13.913 2°55.568 16.2452 0.070573 0.400234 -0.687152
2010-10-26 07:15:16 51°13.926 2°55.559 16.2489 0.070573 0.40024 -0.687152
2010-10-26 07:15:20 51°13.935 2°55.552 16.1967 0.070573 0.400247 -0.652328
2010-10-26 07:15:25 51°13.946 2°55.545 16.1976 0.070573 0.400247 -0.687152
2010-10-26 07:15:31 51°13.96 2°55.536 16.1861 0.070573 0.400254 -0.687152
2010-10-26 07:15:36 51°13.971 2°55.527 16.2028 0.070573 0.400254 -0.687152
2010-10-26 07:15:41 51°13.982 2°55.52 16.2017 0.070573 0.400254 -0.687152
2010-10-26 07:15:47 51°13.995 2°55.51 16.1682 0.070573 0.400254 -0.721976
2010-10-26 07:15:52 51°14.005 2°55.502 16.2584 0.070573 0.400254 -0.687152
2010-10-26 07:15:57 51°14.016 2°55.494 16.2594 0.070573 0.400261 -0.652328
2010-10-26 07:16:02 51°14.028 2°55.487 16.2734 0.070573 0.400261 -0.687152
2010-10-26 07:16:07 51°14.04 2°55.479 16.2918 0.070573 0.400261 -0.687152
2010-10-26 07:16:12 51°14.05 2°55.47 16.2356 0.070573 0.400267 -0.687152
2010-10-26 07:16:17 51°14.061 2°55.462 16.2517 0.070573 0.400274 -0.652328
2010-10-26 07:16:22 51°14.074 2°55.454 16.2901 0.070469 0.399671 -0.687152
2010-10-26 07:16:27 51°14.085 2°55.444 16.2972 0.070573 0.400281 -0.687152
2010-10-26 07:16:32 51°14.097 2°55.435 16.219 0.070573 0.400288 -0.652328
2010-10-26 07:16:38 51°14.111 2°55.423 16.2179 0.070573 0.400288 -0.652328
2010-10-26 07:16:44 51°14.125 2°55.411 16.1807 0.070469 0.399684 -0.687152
2010-10-26 07:16:48 51°14.134 2°55.403 16.2069 0.070573 0.400288 -0.652328
2010-10-26 07:16:54 51°14.149 2°55.391 16.2185 0.070469 0.399684 -0.652328
2010-10-26 07:16:59 51°14.161 2°55.381 16.1868 0.070469 0.399691 -0.652328
2010-10-26 07:17:04 51°14.173 2°55.37 16.2123 0.070469 0.399704 -0.687152
2010-10-26 07:17:09 51°14.185 2°55.359 16.175 0.070469 0.399704 -0.687152
2010-10-26 07:17:14 51°14.197 2°55.349 16.1618 0.070573 0.400322 -0.652328
2010-10-26 07:17:19 51°14.209 2°55.338 16.2405 0.070469 0.399725 -0.652328
2010-10-26 07:17:24 51°14.222 2°55.327 16.1922 0.070469 0.399731 -0.652328
2010-10-26 07:17:29 51°14.233 2°55.316 16.2137 0.070469 0.399752 -0.687152
2010-10-26 07:17:34 51°14.246 2°55.305 16.2841 0.070469 0.399752 -0.687152
2010-10-26 07:17:39 51°14.258 2°55.294 16.2916 0.070469 0.399752 -0.687152
2010-10-26 07:17:44 51°14.27 2°55.282 16.2696 0.070469 0.399759 -0.687152
2010-10-26 07:17:49 51°14.283 2°55.27 16.2892 0.070469 0.399772 -0.687152
2010-10-26 07:17:54 51°14.295 2°55.258 16.2252 0.070469 0.399786 -0.652328
2010-10-26 07:17:59 51°14.307 2°55.246 16.192 0.070573 0.40041 -0.687152
2010-10-26 07:18:04 51°14.319 2°55.233 16.1018 0.070469 0.399799 -0.687152
2010-10-26 07:18:09 51°14.332 2°55.221 16.1266 0.070469 0.399799 -0.687152
2010-10-26 07:18:14 51°14.346 2°55.209 16.2344 0.070469 0.399813 -0.652328
2010-10-26 07:18:19 51°14.359 2°55.196 16.2267 0.070469 0.399813 -0.687152
2010-10-26 07:18:24 51°14.372 2°55.184 16.1945 0.070469 0.399813 -0.687152
2010-10-26 07:18:28 51°14.383 2°55.173 16.1909 0.070469 0.399819 -0.652328
2010-10-26 07:18:33 51°14.396 2°55.16 16.2533 0.070469 0.399853 -0.652328
2010-10-26 07:18:38 51°14.409 2°55.146 16.0939 0.070469 0.399853 -0.652328
2010-10-26 07:18:43 51°14.423 2°55.133 16.0856 0.070469 0.39988 -0.721976
2010-10-26 07:18:48 51°14.436 2°55.119 16.1232 0.070469 0.399894 -0.687152
2010-10-26 07:18:53 51°14.45 2°55.105 16.1052 0.070469 0.399907 -0.652328
2010-10-26 07:18:58 51°14.463 2°55.091 16.1127 0.070469 0.399935 -0.652328
2010-10-26 07:19:04 51°14.48 2°55.074 16.0773 0.070469 0.399941 -0.652328
2010-10-26 07:19:08 51°14.491 2°55.062 16.0603 0.070469 0.399941 -0.652328
2010-10-26 07:19:13 51°14.505 2°55.048 16.0487 0.070469 0.399955 -0.652328
2010-10-26 07:19:17 51°14.516 2°55.037 16.0158 0.070469 0.399955 -0.652328
2010-10-26 07:19:23 51°14.532 2°55.02 16.0948 0.070469 0.399955 -0.652328
2010-10-26 07:19:28 51°14.546 2°55.005 16.124 0.070469 0.399968 -0.687152
2010-10-26 07:19:32 51°14.557 2°54.993 16.1641 0.070469 0.399968 -0.652328
2010-10-26 07:19:37 51°14.57 2°54.976 16.166 0.070469 0.399968 -0.652328
2010-10-26 07:19:42 51°14.583 2°54.959 16.044 0.070469 0.399989 -0.652328
2010-10-26 07:19:47 51°14.595 2°54.942 15.958 0.070469 0.400009 -0.687152
2010-10-26 07:19:52 51°14.608 2°54.925 16.0329 0.070469 0.400016 -0.687152
2010-10-26 07:19:56 51°14.619 2°54.912 16.0275 0.070469 0.400023 -0.652328
2010-10-26 07:20:01 51°14.632 2°54.896 16.0096 0.070469 0.40005 -0.652328
2010-10-26 07:20:06 51°14.645 2°54.88 15.9798 0.070469 0.40005 -0.652328
2010-10-26 07:20:11 51°14.658 2°54.865 16.0139 0.070469 0.40007 -0.687152
2010-10-26 07:20:16 51°14.672 2°54.851 16.0404 0.070469 0.400097 -0.617504
2010-10-26 07:20:20 51°14.683 2°54.839 16.0133 0.070469 0.400104 -0.687152
2010-10-26 07:20:25 51°14.697 2°54.825 16.0493 0.070469 0.400111 -0.687152
2010-10-26 07:20:31 51°14.714 2°54.808 16.0481 0.070469 0.400124 -0.617504
2010-10-26 07:20:36 51°14.728 2°54.794 15.9838 0.070469 0.400124 -0.617504
2010-10-26 07:20:40 51°14.739 2°54.782 16.0567 0.070469 0.400117 -0.687152
2010-10-26 07:20:45 51°14.753 2°54.768 16.0588 0.070469 0.400097 -0.652328
2010-10-26 07:20:51 51°14.77 2°54.752 16.0416 0.070469 0.40007 -0.687152
2010-10-26 07:20:56 51°14.783 2°54.738 16.0824 0.070469 0.400056 -0.687152
2010-10-26 07:21:00 51°14.794 2°54.728 16.0774 0.070469 0.400056 -0.652328
2010-10-26 07:21:05 51°14.808 2°54.714 16.0345 0.070469 0.400056 -0.652328
2010-10-26 07:21:10 51°14.822 2°54.701 16.0342 0.070469 0.400077 -0.617504
2010-10-26 07:21:16 51°14.838 2°54.684 16.0512 0.070469 0.400097 -0.652328
2010-10-26 07:21:20 51°14.849 2°54.673 16.0232 0.070469 0.400124 -0.687152
2010-10-26 07:21:25 51°14.863 2°54.659 16.0345 0.070469 0.400165 -0.687152
2010-10-26 07:21:30 51°14.877 2°54.646 16.0348 0.070469 0.400199 -0.687152
2010-10-26 07:21:36 51°14.894 2°54.632 16.0424 0.070469 0.400199 -0.687152
2010-10-26 07:21:40 51°14.906 2°54.623 16.0315 0.070469 0.400206 -0.652328
2010-10-26 07:21:46 51°14.923 2°54.609 16.0245 0.070469 0.400246 -0.687152
2010-10-26 07:21:51 51°14.937 2°54.597 16.0474 0.070469 0.40024 -0.652328
2010-10-26 07:21:55 51°14.95 2°54.589 16.0237 0.070469 0.400233 -0.687152
2010-10-26 07:22:00 51°14.965 2°54.58 15.9855 0.070469 0.400219 -0.687152
2010-10-26 07:22:05 51°14.979 2°54.571 15.9797 0.070469 0.400219 -0.687152
2010-10-26 07:22:11 51°14.995 2°54.561 15.905 0.070469 0.400206 -0.687152
2010-10-26 07:22:15 51°15.006 2°54.556 15.9666 0.070469 0.400178 -0.687152
2010-10-26 07:22:20 51°15.022 2°54.552 15.9983 0.070469 0.400165 -0.652328
2010-10-26 07:22:25 51°15.038 2°54.548 16.0125 0.070469 0.400158 -0.721976
2010-10-26 07:22:31 51°15.056 2°54.545 16.0149 0.070469 0.400151 -0.687152
2010-10-26 07:22:35 51°15.068 2°54.543 16.064 0.070469 0.400151 -0.687152
2010-10-26 07:22:40 51°15.084 2°54.541 16.0241 0.070469 0.400212 -0.687152
2010-10-26 07:22:44 51°15.095 2°54.539 16.0585 0.070469 0.400294 -0.652328
2010-10-26 07:22:50 51°15.113 2°54.536 16.0732 0.070469 0.400321 -0.652328
2010-10-26 07:22:55 51°15.128 2°54.532 16.0832 0.070469 0.400362 -0.652328
2010-10-26 07:23:00 51°15.143 2°54.527 16.1052 0.070469 0.400375 -0.687152
2010-10-26 07:23:05 51°15.157 2°54.519 16.0867 0.070469 0.400375 -0.687152
2010-10-26 07:23:10 51°15.171 2°54.51 16.0627 0.070469 0.400382 -0.687152
2010-10-26 07:23:15 51°15.184 2°54.498 16.0525 0.070469 0.400402 -0.687152
2010-10-26 07:23:20 51°15.197 2°54.484 16.0101 0.070469 0.400409 -0.652328
2010-10-26 07:23:24 51°15.207 2°54.472 15.8813 0.070469 0.400409 -0.687152
2010-10-26 07:23:30 51°15.221 2°54.452 15.855 0.070469 0.400423 -0.687152
2010-10-26 07:23:35 51°15.233 2°54.435 15.9571 0.070469 0.400423 -0.687152
2010-10-26 07:23:40 51°15.245 2°54.42 15.9612 0.070469 0.400416 -0.721976
2010-10-26 07:23:45 51°15.257 2°54.404 15.9172 0.070469 0.40043 -0.687152
2010-10-26 07:23:50 51°15.27 2°54.387 15.9509 0.070469 0.40045 -0.687152
2010-10-26 07:23:55 51°15.282 2°54.37 15.967 0.070469 0.400457 -0.687152
2010-10-26 07:24:00 51°15.294 2°54.353 15.9969 0.070469 0.400443 -0.687152
2010-10-26 07:24:05 51°15.306 2°54.336 15.928 0.070469 0.400443 -0.687152
2010-10-26 07:24:10 51°15.318 2°54.318 15.9727 0.070469 0.400402 -0.687152
2010-10-26 07:24:16 51°15.332 2°54.297 15.9687 0.070469 0.400341 -0.687152
2010-10-26 07:24:20 51°15.341 2°54.281 15.9825 0.070469 0.400287 -0.687152
2010-10-26 07:24:24 51°15.35 2°54.266 15.9317 0.070469 0.400253 -0.687152
2010-10-26 07:24:31 51°15.366 2°54.239 15.9077 0.070469 0.400273 -0.687152
2010-10-26 07:24:35 51°15.375 2°54.223 15.9484 0.070469 0.400273 -0.687152
2010-10-26 07:24:40 51°15.386 2°54.205 15.9227 0.070469 0.400314 -0.687152
2010-10-26 07:24:45 51°15.396 2°54.187 15.9626 0.070469 0.400409 -0.652328
2010-10-26 07:24:51 51°15.408 2°54.166 15.9722 0.070469 0.400484 -0.687152
2010-10-26 07:24:56 51°15.418 2°54.15 15.9748 0.070469 0.400532 -0.652328
2010-10-26 07:25:00 51°15.425 2°54.137 15.9846 0.070469 0.400552 -0.652328
2010-10-26 07:25:04 51°15.433 2°54.125 15.9912 0.070469 0.400552 -0.652328
2010-10-26 07:25:10 51°15.444 2°54.107 16.0066 0.070469 0.400565 -0.652328
2010-10-26 07:25:16 51°15.454 2°54.09 15.9882 0.070469 0.400552 -0.652328
2010-10-26 07:25:20 51°15.461 2°54.08 15.9922 0.070469 0.400525 -0.652328
2010-10-26 07:25:24 51°15.467 2°54.069 16.0147 0.070469 0.400498 -0.652328
2010-10-26 07:25:30 51°15.476 2°54.053 15.9954 0.070469 0.40047 -0.652328
2010-10-26 07:25:36 51°15.484 2°54.037 16.0079 0.070469 0.40047 -0.652328
2010-10-26 07:25:40 51°15.489 2°54.027 15.9966 0.070469 0.40045 -0.652328
2010-10-26 07:25:45 51°15.497 2°54.014 15.9819 0.070469 0.400457 -0.687152
2010-10-26 07:25:50 51°15.503 2°54.002 15.9847 0.070469 0.40047 -0.721976
2010-10-26 07:25:56 51°15.511 2°53.988 15.9923 0.070469 0.400504 -0.687152
2010-10-26 07:26:00 51°15.516 2°53.978 15.9839 0.070469 0.400532 -0.652328
2010-10-26 07:26:05 51°15.522 2°53.966 16.0207 0.070469 0.400532 -0.652328
2010-10-26 07:26:11 51°15.53 2°53.952 16.0174 0.070469 0.400545 -0.687152
2010-10-26 07:26:16 51°15.536 2°53.941 16.0147 0.070469 0.400532 -0.687152
2010-10-26 07:26:20 51°15.541 2°53.932 15.9973 0.070469 0.400511 -0.687152
2010-10-26 07:26:25 51°15.547 2°53.921 15.9785 0.070469 0.400484 -0.652328
2010-10-26 07:26:30 51°15.552 2°53.91 15.9624 0.070469 0.400484 -0.687152
2010-10-26 07:26:36 51°15.559 2°53.898 15.9818 0.070469 0.400484 -0.687152
2010-10-26 07:26:40 51°15.563 2°53.889 16.0022 0.070469 0.400457 -0.652328
2010-10-26 07:26:45 51°15.569 2°53.879 15.9919 0.070469 0.400457 -0.687152
2010-10-26 07:26:50 51°15.574 2°53.868 16.0147 0.070469 0.400484 -0.687152
2010-10-26 07:26:56 51°15.581 2°53.856 15.9989 0.070469 0.400504 -0.721976
2010-10-26 07:27:00 51°15.585 2°53.848 15.9821 0.070469 0.400532 -0.652328
2010-10-26 07:27:04 51°15.589 2°53.84 15.9869 0.070469 0.400532 -0.652328
2010-10-26 07:27:11 51°15.597 2°53.826 16.0014 0.070469 0.400545 -0.687152
2010-10-26 07:27:15 51°15.601 2°53.819 16.0117 0.070469 0.400545 -0.652328
2010-10-26 07:27:20 51°15.607 2°53.809 15.9916 0.070469 0.400559 -0.687152
2010-10-26 07:27:25 51°15.612 2°53.799 16.0085 0.070469 0.400565 -0.652328
2010-10-26 07:27:30 51°15.617 2°53.79 16.0118 0.070469 0.400579 -0.652328
2010-10-26 07:27:36 51°15.624 2°53.778 16.0177 0.070469 0.400579 -0.652328
2010-10-26 07:27:40 51°15.628 2°53.77 15.9965 0.070469 0.400606 -0.652328
2010-10-26 07:27:45 51°15.633 2°53.76 15.9736 0.070469 0.400627 -0.687152
2010-10-26 07:27:51 51°15.64 2°53.748 16.0138 0.070469 0.400627 -0.687152
2010-10-26 07:27:56 51°15.645 2°53.739 16.0063 0.070469 0.40062 -0.687152
2010-10-26 07:28:00 51°15.649 2°53.73 16.002 0.070469 0.400599 -0.652328
2010-10-26 07:28:05 51°15.655 2°53.72 15.9762 0.070469 0.400599 -0.652328
2010-10-26 07:28:10 51°15.66 2°53.71 15.9933 0.070469 0.400572 -0.687152
2010-10-26 07:28:16 51°15.667 2°53.698 16.0011 0.070469 0.400545 -0.687152
2010-10-26 07:28:20 51°15.672 2°53.69 15.9892 0.070469 0.400538 -0.652328
2010-10-26 07:28:25 51°15.678 2°53.679 16.0156 0.070469 0.400532 -0.652328
2010-10-26 07:28:30 51°15.684 2°53.67 16.0039 0.070469 0.400532 -0.652328
2010-10-26 07:28:35 51°15.69 2°53.66 16.0048 0.070469 0.400532 -0.652328
2010-10-26 07:28:40 51°15.697 2°53.65 16.0137 0.070469 0.400552 -0.687152
2010-10-26 07:28:45 51°15.703 2°53.64 16.0131 0.070469 0.400579 -0.687152
2010-10-26 07:28:50 51°15.71 2°53.63 16.0048 0.070469 0.400606 -0.687152
2010-10-26 07:28:55 51°15.717 2°53.621 16.0091 0.070469 0.40062 -0.687152
2010-10-26 07:29:00 51°15.723 2°53.611 16.0196 0.070469 0.400627 -0.687152
2010-10-26 07:29:05 51°15.729 2°53.601 16.0055 0.070469 0.400627 -0.687152
2010-10-26 07:29:10 51°15.736 2°53.592 15.9926 0.070469 0.400633 -0.652328
2010-10-26 07:29:15 51°15.742 2°53.582 16.0069 0.070469 0.400654 -0.687152
2010-10-26 07:29:20 51°15.748 2°53.573 15.9984 0.070469 0.400667 -0.687152
2010-10-26 07:29:24 51°15.753 2°53.565 16.0208 0.070469 0.400674 -0.687152
2010-10-26 07:29:30 51°15.761 2°53.553 16.0165 0.070469 0.400695 -0.687152
2010-10-26 07:29:35 51°15.767 2°53.544 16.0153 0.070469 0.400695 -0.687152
2010-10-26 07:29:40 51°15.773 2°53.535 16.002 0.070365 0.400117 -0.687152
2010-10-26 07:29:45 51°15.779 2°53.525 16.0043 0.070469 0.400756 -0.652328
2010-10-26 07:29:50 51°15.785 2°53.516 16.0068 0.070469 0.400763 -0.687152
2010-10-26 07:29:55 51°15.792 2°53.508 15.9946 0.070469 0.400763 -0.652328
2010-10-26 07:30:00 51°15.798 2°53.498 16.0126 0.070469 0.400742 -0.687152
2010-10-26 07:30:05 51°15.804 2°53.49 15.99 0.070469 0.400742 -0.687152
2010-10-26 07:30:10 51°15.81 2°53.48 15.9684 0.070469 0.400715 -0.652328
2010-10-26 07:30:15 51°15.817 2°53.471 15.987 0.070365 0.400062 -0.652328
2010-10-26 07:30:20 51°15.823 2°53.463 16.0162 0.070365 0.400008 -0.687152
2010-10-26 07:30:25 51°15.829 2°53.453 16.0141 0.070365 0.400001 -0.687152
2010-10-26 07:30:30 51°15.836 2°53.444 16.0066 0.070365 0.400008 -0.687152
2010-10-26 07:30:35 51°15.842 2°53.435 16.0007 0.070365 0.400008 -0.687152
2010-10-26 07:30:40 51°15.848 2°53.426 16.0046 0.070469 0.400647 -0.687152
2010-10-26 07:30:45 51°15.855 2°53.418 16.0233 0.070469 0.400674 -0.687152
2010-10-26 07:30:50 51°15.861 2°53.409 16.0082 0.070469 0.400688 -0.687152
2010-10-26 07:30:55 51°15.867 2°53.4 16.0125 0.070469 0.400688 -0.687152
2010-10-26 07:31:00 51°15.873 2°53.392 15.9942 0.070469 0.400688 -0.687152
2010-10-26 07:31:05 51°15.88 2°53.383 16.0103 0.070469 0.400688 -0.687152
2010-10-26 07:31:11 51°15.887 2°53.372 16.0057 0.070469 0.400701 -0.687152
2010-10-26 07:31:15 51°15.893 2°53.366 16.0108 0.070469 0.400715 -0.687152
2010-10-26 07:31:20 51°15.899 2°53.357 16.0102 0.070469 0.400742 -0.652328
2010-10-26 07:31:25 51°15.905 2°53.349 15.9894 0.070469 0.40077 -0.652328
2010-10-26 07:31:31 51°15.913 2°53.339 16.0197 0.070469 0.40081 -0.687152
2010-10-26 07:31:35 51°15.918 2°53.332 16.0229 0.070469 0.40081 -0.687152
2010-10-26 07:31:40 51°15.925 2°53.324 16.0256 0.070469 0.400838 -0.652328
2010-10-26 07:31:45 51°15.932 2°53.316 16.0271 0.070469 0.400851 -0.652328
2010-10-26 07:31:50 51°15.938 2°53.307 16.0376 0.070469 0.400851 -0.687152
2010-10-26 07:31:55 51°15.945 2°53.3 15.9876 0.070469 0.400844 -0.721976
2010-10-26 07:32:00 51°15.952 2°53.291 16.0193 0.070469 0.400838 -0.652328
2010-10-26 07:32:05 51°15.958 2°53.283 16.0148 0.070469 0.400838 -0.652328
2010-10-26 07:32:10 51°15.965 2°53.275 15.9921 0.070469 0.400824 -0.687152
2010-10-26 07:32:15 51°15.972 2°53.267 16.0175 0.070469 0.40081 -0.652328
2010-10-26 07:32:20 51°15.978 2°53.259 16.0278 0.070469 0.400804 -0.687152
2010-10-26 07:32:25 51°15.985 2°53.251 16.0176 0.070469 0.400783 -0.652328
2010-10-26 07:32:30 51°15.992 2°53.242 16.0277 0.070365 0.400164 -0.687152
2010-10-26 07:32:35 51°15.999 2°53.234 16.0208 0.070365 0.400164 -0.687152
2010-10-26 07:32:40 51°16.005 2°53.226 16.0179 0.070469 0.400783 -0.687152
2010-10-26 07:32:45 51°16.012 2°53.218 16.0012 0.070469 0.400804 -0.687152
2010-10-26 07:32:50 51°16.019 2°53.21 16.0066 0.070365 0.400212 -0.652328
2010-10-26 07:32:55 51°16.025 2°53.202 16.0154 0.070469 0.400838 -0.652328
2010-10-26 07:33:00 51°16.032 2°53.194 16.0016 0.070469 0.400824 -0.652328
2010-10-26 07:33:04 51°16.038 2°53.188 16.0024 0.070469 0.400824 -0.652328
2010-10-26 07:33:10 51°16.046 2°53.178 16.0154 0.070469 0.400831 -0.687152
2010-10-26 07:33:15 51°16.052 2°53.17 15.989 0.070469 0.400844 -0.652328
2010-10-26 07:33:20 51°16.059 2°53.162 16.013 0.070469 0.400878 -0.652328
2010-10-26 07:33:25 51°16.065 2°53.154 16.0067 0.070365 0.4003 -0.652328
2010-10-26 07:33:30 51°16.072 2°53.146 15.9947 0.070365 0.400334 -0.652328
2010-10-26 07:33:35 51°16.079 2°53.138 15.9933 0.070365 0.400334 -0.652328
2010-10-26 07:33:40 51°16.085 2°53.13 16.0124 0.070365 0.400348 -0.687152
2010-10-26 07:33:45 51°16.093 2°53.122 16.0211 0.070365 0.400368 -0.687152
2010-10-26 07:33:51 51°16.101 2°53.113 16.0239 0.070365 0.400368 -0.687152
2010-10-26 07:33:55 51°16.106 2°53.106 16.0029 0.070365 0.400368 -0.652328
2010-10-26 07:34:00 51°16.113 2°53.098 15.9946 0.070365 0.400348 -0.652328
2010-10-26 07:34:05 51°16.119 2°53.09 15.9985 0.070365 0.400348 -0.652328
2010-10-26 07:34:10 51°16.126 2°53.082 16.0176 0.070365 0.400314 -0.652328
2010-10-26 07:34:15 51°16.133 2°53.074 16.0248 0.070365 0.400287 -0.652328
2010-10-26 07:34:20 51°16.139 2°53.066 16.0112 0.070365 0.400246 -0.687152
2010-10-26 07:34:25 51°16.146 2°53.058 16.029 0.070365 0.400239 -0.687152
2010-10-26 07:34:30 51°16.153 2°53.05 16.0038 0.070365 0.400246 -0.687152
2010-10-26 07:34:35 51°16.16 2°53.042 16.0233 0.070365 0.400246 -0.687152
2010-10-26 07:34:40 51°16.166 2°53.034 16.0287 0.070365 0.40028 -0.652328
2010-10-26 07:34:45 51°16.173 2°53.026 16.0167 0.070365 0.400321 -0.687152
2010-10-26 07:34:50 51°16.18 2°53.018 16.02 0.070365 0.400375 -0.687152
2010-10-26 07:34:55 51°16.186 2°53.01 16.0029 0.070365 0.400402 -0.687152
2010-10-26 07:35:00 51°16.193 2°53.002 16.0279 0.070365 0.400423 -0.652328
2010-10-26 07:35:05 51°16.2 2°52.994 16.0158 0.070365 0.400423 -0.652328
2010-10-26 07:35:10 51°16.206 2°52.986 16.0241 0.070365 0.400429 -0.687152
2010-10-26 07:35:15 51°16.213 2°52.978 16.0158 0.070365 0.400436 -0.687152
2010-10-26 07:35:20 51°16.221 2°52.971 16.0373 0.070365 0.400443 -0.721976
2010-10-26 07:35:24 51°16.226 2°52.965 16.0075 0.070365 0.400436 -0.652328
2010-10-26 07:35:30 51°16.233 2°52.955 16.029 0.070365 0.400443 -0.652328
2010-10-26 07:35:35 51°16.24 2°52.948 15.9904 0.070365 0.400443 -0.652328
2010-10-26 07:35:40 51°16.247 2°52.94 16.0233 0.070365 0.400443 -0.652328
2010-10-26 07:35:45 51°16.254 2°52.933 16.0112 0.070365 0.400429 -0.721976
2010-10-26 07:35:50 51°16.261 2°52.925 16.0119 0.070365 0.400423 -0.687152
2010-10-26 07:35:55 51°16.268 2°52.918 16.0103 0.070365 0.400409 -0.652328
2010-10-26 07:36:00 51°16.276 2°52.911 16.0106 0.070365 0.400409 -0.687152
2010-10-26 07:36:04 51°16.282 2°52.905 15.9911 0.070365 0.400409 -0.687152
2010-10-26 07:36:10 51°16.291 2°52.897 15.999 0.070365 0.400402 -0.721976
2010-10-26 07:36:16 51°16.3 2°52.889 16.038 0.070365 0.400395 -0.687152
2010-10-26 07:36:20 51°16.306 2°52.884 16.0241 0.070365 0.400395 -0.687152
2010-10-26 07:36:24 51°16.312 2°52.879 15.9964 0.070365 0.400389 -0.652328
2010-10-26 07:36:30 51°16.321 2°52.871 15.9999 0.070261 0.399776 -0.687152
2010-10-26 07:36:35 51°16.329 2°52.865 16.0125 0.070261 0.399776 -0.687152
2010-10-26 07:36:40 51°16.337 2°52.858 16.0316 0.070365 0.400409 -0.652328
2010-10-26 07:36:45 51°16.345 2°52.852 16.0309 0.070261 0.399817 -0.687152
2010-10-26 07:36:50 51°16.353 2°52.846 16.0308 0.070365 0.400443 -0.687152
2010-10-26 07:36:55 51°16.36 2°52.839 16.0278 0.070365 0.40047 -0.652328
2010-10-26 07:37:00 51°16.368 2°52.833 15.9926 0.070365 0.400491 -0.652328
2010-10-26 07:37:05 51°16.376 2°52.826 16.0233 0.070365 0.400491 -0.652328
2010-10-26 07:37:10 51°16.384 2°52.82 16.0221 0.070365 0.400497 -0.687152
2010-10-26 07:37:15 51°16.392 2°52.813 16.031 0.070365 0.400504 -0.652328
2010-10-26 07:37:20 51°16.4 2°52.807 16.01 0.070261 0.399898 -0.687152
2010-10-26 07:37:25 51°16.408 2°52.8 16.0331 0.070261 0.399898 -0.721976
2010-10-26 07:37:30 51°16.416 2°52.794 16.0231 0.070365 0.400511 -0.687152
2010-10-26 07:37:35 51°16.424 2°52.787 16.0165 0.070365 0.400511 -0.687152
2010-10-26 07:37:40 51°16.432 2°52.781 16.0387 0.070261 0.399885 -0.652328
2010-10-26 07:37:45 51°16.44 2°52.774 16.0509 0.070365 0.400484 -0.652328
2010-10-26 07:37:50 51°16.448 2°52.768 16.0315 0.070261 0.399858 -0.687152
2010-10-26 07:37:55 51°16.456 2°52.761 16.026 0.070261 0.399878 -0.652328
2010-10-26 07:38:00 51°16.464 2°52.754 16.0434 0.070261 0.399892 -0.687152
2010-10-26 07:38:05 51°16.472 2°52.748 16.0454 0.070261 0.399892 -0.687152
2010-10-26 07:38:11 51°16.481 2°52.74 16.0475 0.070261 0.399905 -0.652328
2010-10-26 07:38:15 51°16.488 2°52.734 16.0408 0.070365 0.400545 -0.687152
2010-10-26 07:38:20 51°16.496 2°52.728 16.0506 0.070261 0.399939 -0.687152
2010-10-26 07:38:25 51°16.504 2°52.722 16.0499 0.070261 0.399946 -0.652328
2010-10-26 07:38:30 51°16.512 2°52.715 16.0569 0.070261 0.399932 -0.652328
2010-10-26 07:38:35 51°16.52 2°52.709 16.0486 0.070261 0.399932 -0.652328
2010-10-26 07:38:40 51°16.528 2°52.702 16.0499 0.070261 0.399926 -0.687152
2010-10-26 07:38:45 51°16.536 2°52.695 16.0458 0.070261 0.399926 -0.687152
2010-10-26 07:38:50 51°16.544 2°52.689 16.0671 0.070365 0.400538 -0.687152
2010-10-26 07:38:55 51°16.552 2°52.682 16.0416 0.070261 0.399946 -0.652328
2010-10-26 07:39:00 51°16.56 2°52.676 16.0242 0.070261 0.399973 -0.652328
2010-10-26 07:39:05 51°16.568 2°52.669 16.0268 0.070261 0.399973 -0.652328
2010-10-26 07:39:10 51°16.576 2°52.663 16.0295 0.070261 0.4 -0.721976
2010-10-26 07:39:15 51°16.584 2°52.656 16.0422 0.070261 0.400014 -0.652328
2010-10-26 07:39:20 51°16.592 2°52.65 16.0424 0.070261 0.400014 -0.687152
2010-10-26 07:39:24 51°16.598 2°52.645 16.0326 0.070261 0.399994 -0.652328
2010-10-26 07:39:30 51°16.608 2°52.638 16.0068 0.070261 0.399987 -0.687152
2010-10-26 07:39:35 51°16.617 2°52.634 16.0019 0.070261 0.399987 -0.687152
2010-10-26 07:39:40 51°16.625 2°52.629 16.0411 0.070261 0.399966 -0.687152
2010-10-26 07:39:45 51°16.633 2°52.624 16.0379 0.070261 0.39996 -0.687152
2010-10-26 07:39:50 51°16.641 2°52.62 16.0488 0.070261 0.39996 -0.687152
2010-10-26 07:39:55 51°16.65 2°52.616 16.0238 0.070261 0.399973 -0.687152
2010-10-26 07:40:00 51°16.658 2°52.611 16.0188 0.070261 0.399994 -0.687152
2010-10-26 07:40:04 51°16.665 2°52.608 16.0305 0.070261 0.399994 -0.687152
2010-10-26 07:40:10 51°16.675 2°52.604 16.034 0.070261 0.4 -0.652328
2010-10-26 07:40:15 51°16.684 2°52.6 16.0269 0.070261 0.400007 -0.687152
2010-10-26 07:40:20 51°16.692 2°52.596 16.0414 0.070261 0.399987 -0.652328
2010-10-26 07:40:24 51°16.699 2°52.594 16.0142 0.070261 0.399994 -0.687152
2010-10-26 07:40:30 51°16.709 2°52.59 16.0184 0.070261 0.4 -0.652328
2010-10-26 07:40:35 51°16.718 2°52.586 16.0327 0.070261 0.4 -0.652328
2010-10-26 07:40:40 51°16.726 2°52.582 16.0491 0.070261 0.400021 -0.687152
2010-10-26 07:40:45 51°16.735 2°52.579 16.0448 0.070261 0.400034 -0.687152
2010-10-26 07:40:50 51°16.743 2°52.575 16.0495 0.070261 0.400055 -0.652328
2010-10-26 07:40:55 51°16.752 2°52.572 16.0448 0.070261 0.400055 -0.687152
2010-10-26 07:41:00 51°16.76 2°52.568 16.045 0.070261 0.400048 -0.687152
2010-10-26 07:41:05 51°16.768 2°52.565 16.0461 0.070261 0.400048 -0.687152
2010-10-26 07:41:10 51°16.777 2°52.561 16.0471 0.070261 0.400034 -0.687152
2010-10-26 07:41:15 51°16.785 2°52.557 16.0427 0.070261 0.400028 -0.652328
2010-10-26 07:41:20 51°16.794 2°52.554 16.0575 0.070261 0.400034 -0.687152
2010-10-26 07:41:25 51°16.802 2°52.55 16.0377 0.070261 0.400034 -0.652328
2010-10-26 07:41:30 51°16.811 2°52.546 16.0494 0.070261 0.400048 -0.721976
2010-10-26 07:41:35 51°16.819 2°52.542 16.0441 0.070261 0.400048 -0.721976
2010-10-26 07:41:40 51°16.828 2°52.539 16.0212 0.070261 0.400075 -0.652328
2010-10-26 07:41:45 51°16.836 2°52.534 16.0174 0.070261 0.400082 -0.687152
2010-10-26 07:41:50 51°16.845 2°52.531 16.0179 0.070261 0.400096 -0.687152
2010-10-26 07:41:55 51°16.853 2°52.527 16.0443 0.070261 0.400109 -0.687152
2010-10-26 07:42:00 51°16.862 2°52.523 16.0465 0.070261 0.400123 -0.687152
2010-10-26 07:42:05 51°16.87 2°52.519 16.0506 0.070261 0.400123 -0.687152
2010-10-26 07:42:10 51°16.878 2°52.515 16.0573 0.070261 0.400137 -0.652328
2010-10-26 07:42:15 51°16.887 2°52.511 16.0682 0.070261 0.40015 -0.687152
2010-10-26 07:42:20 51°16.895 2°52.507 16.0612 0.070261 0.400164 -0.687152
2010-10-26 07:42:25 51°16.903 2°52.503 16.026 0.070261 0.400171 -0.687152
2010-10-26 07:42:31 51°16.913 2°52.498 16.0294 0.070261 0.400184 -0.652328
2010-10-26 07:42:35 51°16.92 2°52.495 16.0509 0.070261 0.400184 -0.652328
2010-10-26 07:42:40 51°16.928 2°52.491 16.058 0.070261 0.400177 -0.652328
2010-10-26 07:42:45 51°16.936 2°52.487 16.0319 0.070261 0.400157 -0.652328
2010-10-26 07:42:50 51°16.944 2°52.483 16.032 0.070261 0.400102 -0.687152
2010-10-26 07:42:55 51°16.953 2°52.479 16.0589 0.070261 0.400068 -0.687152
2010-10-26 07:43:00 51°16.961 2°52.475 16.0385 0.070261 0.400055 -0.687152
2010-10-26 07:43:05 51°16.969 2°52.471 16.0513 0.070261 0.400055 -0.687152
2010-10-26 07:43:10 51°16.978 2°52.467 16.0644 0.070261 0.400055 -0.687152
2010-10-26 07:43:16 51°16.987 2°52.462 16.0617 0.070261 0.400068 -0.687152
2010-10-26 07:43:20 51°16.994 2°52.459 16.0748 0.070261 0.400116 -0.687152
2010-10-26 07:43:24 51°17.001 2°52.456 16.0764 0.070261 0.400171 -0.721976
2010-10-26 07:43:30 51°17.011 2°52.451 16.0869 0.070261 0.400232 -0.652328
2010-10-26 07:43:35 51°17.019 2°52.447 16.0749 0.070261 0.400232 -0.652328
2010-10-26 07:43:40 51°17.027 2°52.443 16.065 0.070261 0.40028 -0.687152
2010-10-26 07:43:45 51°17.035 2°52.439 16.0788 0.070261 0.400307 -0.687152
2010-10-26 07:43:50 51°17.043 2°52.435 16.0692 0.070261 0.400307 -0.687152
2010-10-26 07:43:55 51°17.051 2°52.431 16.061 0.070261 0.400314 -0.687152
2010-10-26 07:44:00 51°17.06 2°52.427 16.0529 0.070261 0.400293 -0.687152
2010-10-26 07:44:04 51°17.066 2°52.424 16.0367 0.070261 0.400293 -0.687152
2010-10-26 07:44:10 51°17.076 2°52.419 16.0455 0.070261 0.400259 -0.687152
2010-10-26 07:44:15 51°17.084 2°52.415 16.0671 0.070261 0.400232 -0.687152
2010-10-26 07:44:20 51°17.092 2°52.411 16.0655 0.070261 0.400225 -0.652328
2010-10-26 07:44:25 51°17.1 2°52.408 16.0621 0.070261 0.400232 -0.652328
2010-10-26 07:44:30 51°17.109 2°52.403 16.0727 0.070261 0.400252 -0.721976
2010-10-26 07:44:35 51°17.117 2°52.4 16.0628 0.070261 0.400252 -0.721976
2010-10-26 07:44:40 51°17.125 2°52.395 16.0724 0.070261 0.400259 -0.687152
2010-10-26 07:44:45 51°17.133 2°52.392 16.0716 0.070261 0.400266 -0.687152
2010-10-26 07:44:51 51°17.142 2°52.387 16.0786 0.070261 0.400273 -0.721976
2010-10-26 07:44:55 51°17.149 2°52.384 16.081 0.070261 0.400273 -0.652328
2010-10-26 07:45:00 51°17.157 2°52.38 16.0755 0.070261 0.400259 -0.687152
2010-10-26 07:45:05 51°17.166 2°52.376 16.0792 0.070261 0.400259 -0.687152
2010-10-26 07:45:10 51°17.174 2°52.372 16.0594 0.070261 0.400259 -0.652328
2010-10-26 07:45:15 51°17.182 2°52.368 16.0751 0.070261 0.400259 -0.687152
2010-10-26 07:45:20 51°17.191 2°52.364 16.0622 0.070261 0.400259 -0.687152
2010-10-26 07:45:25 51°17.199 2°52.359 16.0845 0.070261 0.400266 -0.687152
2010-10-26 07:45:30 51°17.207 2°52.355 16.0741 0.070261 0.400266 -0.687152
2010-10-26 07:45:35 51°17.215 2°52.351 16.0666 0.070261 0.400266 -0.687152
2010-10-26 07:45:40 51°17.223 2°52.347 16.077 0.070261 0.4003 -0.652328
2010-10-26 07:45:45 51°17.231 2°52.343 16.0542 0.070261 0.40032 -0.687152
2010-10-26 07:45:50 51°17.24 2°52.34 16.066 0.070261 0.400348 -0.687152
2010-10-26 07:45:55 51°17.248 2°52.337 16.0781 0.070261 0.400348 -0.652328
2010-10-26 07:46:00 51°17.256 2°52.334 16.0729 0.070261 0.400341 -0.687152
2010-10-26 07:46:05 51°17.264 2°52.332 16.0807 0.070261 0.400341 -0.687152
2010-10-26 07:46:10 51°17.272 2°52.33 16.0725 0.070261 0.400327 -0.687152
2010-10-26 07:46:15 51°17.281 2°52.328 16.0617 0.070261 0.4003 -0.687152
2010-10-26 07:46:20 51°17.289 2°52.326 16.0569 0.070261 0.400273 -0.652328
2010-10-26 07:46:24 51°17.296 2°52.325 16.0742 0.070261 0.400259 -0.652328
2010-10-26 07:46:30 51°17.306 2°52.324 16.0656 0.070261 0.400259 -0.652328
2010-10-26 07:46:35 51°17.314 2°52.323 16.0812 0.070261 0.400259 -0.652328
2010-10-26 07:46:40 51°17.323 2°52.322 16.0663 0.070261 0.400266 -0.687152
2010-10-26 07:46:45 51°17.331 2°52.321 16.0776 0.070261 0.400286 -0.687152
2010-10-26 07:46:50 51°17.34 2°52.32 16.0895 0.070261 0.4003 -0.687152
2010-10-26 07:46:55 51°17.348 2°52.32 16.0781 0.070261 0.400314 -0.687152
2010-10-26 07:47:00 51°17.356 2°52.319 16.0905 0.070261 0.400341 -0.687152
2010-10-26 07:47:05 51°17.364 2°52.318 16.1031 0.070261 0.400341 -0.687152
2010-10-26 07:47:11 51°17.375 2°52.317 16.1043 0.070261 0.400354 -0.687152
2010-10-26 07:47:15 51°17.382 2°52.316 16.0958 0.070261 0.400395 -0.652328
2010-10-26 07:47:20 51°17.39 2°52.316 16.092 0.070261 0.400423 -0.687152
2010-10-26 07:47:25 51°17.398 2°52.315 16.0963 0.070261 0.40047 -0.687152
2010-10-26 07:47:30 51°17.406 2°52.314 16.0768 0.070261 0.400498 -0.687152
2010-10-26 07:47:35 51°17.415 2°52.313 16.0854 0.070261 0.400498 -0.687152
2010-10-26 07:47:40 51°17.423 2°52.312 16.1016 0.070261 0.400511 -0.687152
2010-10-26 07:47:45 51°17.431 2°52.311 16.0849 0.070261 0.400505 -0.652328
2010-10-26 07:47:50 51°17.439 2°52.309 16.0955 0.070261 0.400498 -0.687152
2010-10-26 07:47:55 51°17.448 2°52.308 16.0959 0.070261 0.400484 -0.652328
2010-10-26 07:48:00 51°17.456 2°52.307 16.1136 0.070261 0.400484 -0.687152
2010-10-26 07:48:05 51°17.465 2°52.306 16.1079 0.070261 0.400484 -0.687152
2010-10-26 07:48:10 51°17.473 2°52.305 16.1176 0.070261 0.400505 -0.652328
2010-10-26 07:48:15 51°17.481 2°52.304 16.1104 0.070261 0.400525 -0.721976
2010-10-26 07:48:20 51°17.489 2°52.303 16.0879 0.070261 0.400545 -0.687152
2010-10-26 07:48:25 51°17.498 2°52.301 16.1024 0.070261 0.400545 -0.652328
2010-10-26 07:48:30 51°17.506 2°52.3 16.11 0.070261 0.400511 -0.687152
2010-10-26 07:48:35 51°17.514 2°52.298 16.098 0.070261 0.400511 -0.687152
2010-10-26 07:48:40 51°17.522 2°52.297 16.1053 0.070261 0.400498 -0.652328
2010-10-26 07:48:45 51°17.531 2°52.296 16.1073 0.070261 0.400484 -0.652328
2010-10-26 07:48:50 51°17.539 2°52.294 16.1071 0.070261 0.400477 -0.687152
2010-10-26 07:48:55 51°17.547 2°52.293 16.1223 0.070261 0.400484 -0.652328
2010-10-26 07:49:00 51°17.555 2°52.291 16.1276 0.070261 0.400505 -0.687152
2010-10-26 07:49:05 51°17.564 2°52.29 16.1172 0.070261 0.400505 -0.687152
2010-10-26 07:49:10 51°17.572 2°52.289 16.1122 0.070261 0.400545 -0.652328
2010-10-26 07:49:15 51°17.58 2°52.287 16.0897 0.070261 0.400559 -0.687152
2010-10-26 07:49:20 51°17.589 2°52.286 16.1168 0.070261 0.400559 -0.687152
2010-10-26 07:49:24 51°17.595 2°52.284 16.1164 0.070261 0.400559 -0.687152
2010-10-26 07:49:30 51°17.605 2°52.283 16.1163 0.070261 0.400559 -0.687152
2010-10-26 07:49:35 51°17.613 2°52.282 16.1208 0.070261 0.400559 -0.687152
2010-10-26 07:49:40 51°17.621 2°52.28 16.1241 0.070261 0.400566 -0.687152
2010-10-26 07:49:45 51°17.629 2°52.279 16.1048 0.070261 0.400573 -0.721976
2010-10-26 07:49:50 51°17.638 2°52.278 16.0995 0.070261 0.400593 -0.687152
2010-10-26 07:49:55 51°17.645 2°52.276 16.1056 0.070261 0.400627 -0.652328
2010-10-26 07:50:00 51°17.654 2°52.274 16.1177 0.070261 0.400661 -0.687152
2010-10-26 07:50:05 51°17.662 2°52.273 16.1301 0.070261 0.400661 -0.687152
2010-10-26 07:50:10 51°17.67 2°52.272 16.1294 0.070261 0.400682 -0.652328
2010-10-26 07:50:15 51°17.679 2°52.27 16.1348 0.070261 0.400709 -0.687152
2010-10-26 07:50:20 51°17.687 2°52.268 16.1266 0.070261 0.400709 -0.687152
2010-10-26 07:50:25 51°17.695 2°52.267 16.1266 0.070261 0.400696 -0.687152
2010-10-26 07:50:30 51°17.703 2°52.265 16.1454 0.070261 0.400668 -0.687152
2010-10-26 07:50:35 51°17.711 2°52.264 16.1236 0.070261 0.400668 -0.687152
2010-10-26 07:50:40 51°17.72 2°52.263 16.139 0.070157 0.400027 -0.687152
2010-10-26 07:50:45 51°17.728 2°52.261 16.1341 0.070157 0.4 -0.687152
2010-10-26 07:50:50 51°17.736 2°52.26 16.1395 0.070261 0.400593 -0.652328
2010-10-26 07:50:55 51°17.744 2°52.258 16.1173 0.070261 0.4006 -0.687152
2010-10-26 07:51:00 51°17.753 2°52.257 16.127 0.070261 0.400634 -0.652328
2010-10-26 07:51:05 51°17.761 2°52.255 16.1247 0.070261 0.400634 -0.652328
2010-10-26 07:51:10 51°17.769 2°52.253 16.1311 0.070157 0.400068 -0.652328
2010-10-26 07:51:15 51°17.778 2°52.252 16.1243 0.070157 0.400109 -0.687152
2010-10-26 07:51:20 51°17.786 2°52.25 16.1385 0.070157 0.40013 -0.652328
2010-10-26 07:51:25 51°17.795 2°52.249 16.1358 0.070157 0.400136 -0.652328
2010-10-26 07:51:30 51°17.803 2°52.247 16.1311 0.070261 0.400737 -0.687152
2010-10-26 07:51:35 51°17.811 2°52.246 16.124 0.070261 0.400737 -0.687152
2010-10-26 07:51:40 51°17.819 2°52.244 16.1297 0.070157 0.400089 -0.652328
2010-10-26 07:51:44 51°17.826 2°52.243 16.14 0.070157 0.400061 -0.687152
2010-10-26 07:51:50 51°17.836 2°52.241 16.1442 0.070157 0.400048 -0.687152
2010-10-26 07:51:55 51°17.844 2°52.239 16.157 0.070261 0.400655 -0.687152
2010-10-26 07:52:00 51°17.853 2°52.238 16.1482 0.070157 0.400034 -0.687152
2010-10-26 07:52:05 51°17.861 2°52.236 16.1467 0.070157 0.400034 -0.687152
2010-10-26 07:52:10 51°17.869 2°52.235 16.14 0.070157 0.400055 -0.652328
2010-10-26 07:52:15 51°17.877 2°52.233 16.1393 0.070157 0.400075 -0.687152
2010-10-26 07:52:20 51°17.886 2°52.232 16.1335 0.070157 0.400109 -0.687152
2010-10-26 07:52:25 51°17.894 2°52.23 16.1552 0.070157 0.400136 -0.652328
2010-10-26 07:52:30 51°17.903 2°52.228 16.1569 0.070157 0.40015 -0.687152
2010-10-26 07:52:35 51°17.911 2°52.227 16.1457 0.070157 0.40015 -0.687152
2010-10-26 07:52:40 51°17.919 2°52.225 16.1562 0.070157 0.400143 -0.687152
2010-10-26 07:52:45 51°17.927 2°52.223 16.167 0.070157 0.400143 -0.687152
2010-10-26 07:52:50 51°17.936 2°52.222 16.1517 0.070157 0.400136 -0.687152
2010-10-26 07:52:55 51°17.944 2°52.22 16.1469 0.070157 0.400157 -0.652328
2010-10-26 07:53:00 51°17.952 2°52.218 16.1633 0.070157 0.400198 -0.721976
2010-10-26 07:53:05 51°17.961 2°52.217 16.1487 0.070157 0.400198 -0.721976
2010-10-26 07:53:10 51°17.969 2°52.215 16.155 0.070157 0.400266 -0.687152
2010-10-26 07:53:15 51°17.977 2°52.213 16.1545 0.070157 0.400293 -0.687152
2010-10-26 07:53:20 51°17.985 2°52.211 16.1594 0.070157 0.400314 -0.652328
2010-10-26 07:53:25 51°17.994 2°52.21 16.1625 0.070157 0.400307 -0.687152
2010-10-26 07:53:30 51°18.003 2°52.208 16.1585 0.070157 0.400273 -0.687152
2010-10-26 07:53:35 51°18.011 2°52.206 16.1702 0.070157 0.400273 -0.687152
2010-10-26 07:53:40 51°18.019 2°52.205 16.1695 0.070157 0.400245 -0.687152
2010-10-26 07:53:45 51°18.027 2°52.203 16.1753 0.070157 0.400205 -0.721976
2010-10-26 07:53:50 51°18.036 2°52.202 16.1765 0.070157 0.400205 -0.687152
2010-10-26 07:53:55 51°18.044 2°52.2 16.1714 0.070157 0.400225 -0.687152
2010-10-26 07:54:00 51°18.053 2°52.199 16.1656 0.070157 0.400245 -0.687152
2010-10-26 07:54:05 51°18.062 2°52.197 16.1663 0.070157 0.400245 -0.687152
2010-10-26 07:54:10 51°18.07 2°52.196 16.171 0.070157 0.400259 -0.687152
2010-10-26 07:54:15 51°18.079 2°52.194 16.1693 0.070157 0.400259 -0.687152
2010-10-26 07:54:20 51°18.087 2°52.192 16.1715 0.070157 0.400252 -0.652328
2010-10-26 07:54:25 51°18.095 2°52.19 16.1871 0.070157 0.400252 -0.652328
2010-10-26 07:54:30 51°18.103 2°52.188 16.1721 0.070157 0.400252 -0.721976
2010-10-26 07:54:35 51°18.111 2°52.187 16.1836 0.070157 0.400252 -0.721976
2010-10-26 07:54:40 51°18.12 2°52.185 16.1787 0.070157 0.400259 -0.721976
2010-10-26 07:54:45 51°18.128 2°52.183 16.1734 0.070157 0.400259 -0.687152
2010-10-26 07:54:50 51°18.137 2°52.182 16.1713 0.070157 0.400266 -0.652328
2010-10-26 07:54:55 51°18.145 2°52.18 16.1671 0.070157 0.400286 -0.652328
2010-10-26 07:55:00 51°18.153 2°52.178 16.1845 0.070157 0.4003 -0.687152
2010-10-26 07:55:05 51°18.162 2°52.176 16.183 0.070157 0.4003 -0.687152
2010-10-26 07:55:10 51°18.17 2°52.175 16.1875 0.070157 0.400327 -0.687152
2010-10-26 07:55:15 51°18.179 2°52.173 16.1606 0.070157 0.400368 -0.687152
2010-10-26 07:55:20 51°18.188 2°52.171 16.1742 0.070157 0.400389 -0.721976
2010-10-26 07:55:25 51°18.196 2°52.17 16.1664 0.070157 0.400403 -0.687152
2010-10-26 07:55:30 51°18.205 2°52.167 16.1803 0.070157 0.400389 -0.687152
2010-10-26 07:55:35 51°18.213 2°52.166 16.1895 0.070157 0.400389 -0.687152
2010-10-26 07:55:40 51°18.222 2°52.164 16.1922 0.070157 0.400382 -0.687152
2010-10-26 07:55:45 51°18.23 2°52.163 16.1851 0.070157 0.400375 -0.687152
2010-10-26 07:55:50 51°18.238 2°52.16 16.1897 0.070157 0.400382 -0.687152
2010-10-26 07:55:55 51°18.246 2°52.158 16.1698 0.070157 0.400382 -0.687152
2010-10-26 07:56:00 51°18.255 2°52.156 16.1835 0.070157 0.400396 -0.687152
2010-10-26 07:56:05 51°18.263 2°52.155 16.1924 0.070157 0.400396 -0.687152
2010-10-26 07:56:10 51°18.272 2°52.152 16.1929 0.070157 0.400403 -0.687152
2010-10-26 07:56:15 51°18.28 2°52.151 16.1987 0.070157 0.400403 -0.652328
2010-10-26 07:56:20 51°18.289 2°52.149 16.2032 0.070157 0.400396 -0.687152
2010-10-26 07:56:24 51°18.296 2°52.148 16.1944 0.070157 0.400396 -0.687152
2010-10-26 07:56:30 51°18.306 2°52.146 16.1757 0.070157 0.400396 -0.687152
2010-10-26 07:56:35 51°18.315 2°52.144 16.1941 0.070157 0.400396 -0.687152
2010-10-26 07:56:40 51°18.323 2°52.142 16.2032 0.070157 0.400389 -0.687152
2010-10-26 07:56:45 51°18.331 2°52.14 16.1972 0.070157 0.400389 -0.687152
2010-10-26 07:56:50 51°18.339 2°52.139 16.1884 0.070157 0.400389 -0.652328
2010-10-26 07:56:55 51°18.348 2°52.136 16.2032 0.070157 0.400382 -0.687152
2010-10-26 07:57:00 51°18.356 2°52.135 16.185 0.070157 0.400355 -0.687152
2010-10-26 07:57:05 51°18.365 2°52.133 16.1919 0.070157 0.400355 -0.687152
2010-10-26 07:57:10 51°18.373 2°52.131 16.2124 0.070157 0.400341 -0.687152
2010-10-26 07:57:15 51°18.381 2°52.129 16.2089 0.070157 0.400348 -0.687152
2010-10-26 07:57:20 51°18.389 2°52.127 16.206 0.070157 0.400362 -0.652328
2010-10-26 07:57:25 51°18.398 2°52.125 16.1935 0.070157 0.400389 -0.687152
2010-10-26 07:57:30 51°18.407 2°52.123 16.1935 0.070157 0.400423 -0.687152
2010-10-26 07:57:35 51°18.415 2°52.121 16.1922 0.070157 0.400423 -0.687152
2010-10-26 07:57:40 51°18.424 2°52.119 16.2185 0.070157 0.40043 -0.687152
2010-10-26 07:57:45 51°18.432 2°52.117 16.2036 0.070157 0.400423 -0.687152
2010-10-26 07:57:50 51°18.44 2°52.116 16.2214 0.070157 0.400409 -0.652328
2010-10-26 07:57:55 51°18.448 2°52.114 16.2062 0.070157 0.400382 -0.687152
2010-10-26 07:58:00 51°18.457 2°52.112 16.2079 0.070157 0.400368 -0.687152
2010-10-26 07:58:05 51°18.465 2°52.11 16.2109 0.070157 0.400368 -0.687152
2010-10-26 07:58:10 51°18.473 2°52.108 16.2153 0.070157 0.400368 -0.687152
2010-10-26 07:58:15 51°18.481 2°52.106 16.2229 0.070157 0.400368 -0.687152
2010-10-26 07:58:20 51°18.489 2°52.104 16.2216 0.070157 0.400375 -0.687152
2010-10-26 07:58:24 51°18.496 2°52.103 16.2124 0.070157 0.400396 -0.687152
2010-10-26 07:58:30 51°18.506 2°52.1 16.2307 0.070157 0.400409 -0.687152
2010-10-26 07:58:35 51°18.515 2°52.099 16.2096 0.070157 0.400409 -0.687152
2010-10-26 07:58:40 51°18.523 2°52.097 16.218 0.070157 0.40043 -0.687152
2010-10-26 07:58:44 51°18.53 2°52.096 16.2274 0.070157 0.400437 -0.687152
2010-10-26 07:58:50 51°18.54 2°52.094 16.2266 0.070157 0.400464 -0.687152
2010-10-26 07:58:55 51°18.549 2°52.092 16.2214 0.070157 0.400478 -0.652328
2010-10-26 07:59:00 51°18.558 2°52.09 16.2245 0.070157 0.400485 -0.687152
2010-10-26 07:59:05 51°18.566 2°52.089 16.2368 0.070157 0.400485 -0.687152
2010-10-26 07:59:10 51°18.575 2°52.087 16.2282 0.070157 0.400491 -0.687152
2010-10-26 07:59:15 51°18.583 2°52.085 16.2427 0.070157 0.400485 -0.687152
2010-10-26 07:59:20 51°18.591 2°52.083 16.239 0.070157 0.400478 -0.687152
2010-10-26 07:59:25 51°18.6 2°52.081 16.2387 0.070157 0.400457 -0.687152
2010-10-26 07:59:30 51°18.608 2°52.08 16.222 0.070157 0.400444 -0.652328
2010-10-26 07:59:35 51°18.616 2°52.078 16.2225 0.070157 0.400444 -0.652328
2010-10-26 07:59:40 51°18.625 2°52.076 16.2379 0.070157 0.400464 -0.687152
2010-10-26 07:59:46 51°18.635 2°52.074 16.2402 0.070157 0.400471 -0.687152
2010-10-26 07:59:50 51°18.641 2°52.072 16.2232 0.070157 0.400505 -0.687152
2010-10-26 07:59:55 51°18.65 2°52.071 16.2443 0.070157 0.400519 -0.721976
2010-10-26 08:00:00 51°18.658 2°52.068 16.2424 0.070157 0.400519 -0.687152
2010-10-26 08:00:05 51°18.667 2°52.067 16.2403 0.070157 0.400519 -0.687152
2010-10-26 08:00:10 51°18.676 2°52.065 16.2225 0.070157 0.400526 -0.652328
2010-10-26 08:00:15 51°18.684 2°52.063 16.2536 0.070157 0.400512 -0.687152
2010-10-26 08:00:20 51°18.693 2°52.061 16.2302 0.070157 0.400519 -0.687152
2010-10-26 08:00:25 51°18.701 2°52.06 16.2236 0.070157 0.400553 -0.652328
2010-10-26 08:00:30 51°18.71 2°52.058 16.2385 0.070157 0.400587 -0.721976
2010-10-26 08:00:35 51°18.718 2°52.056 16.2495 0.070157 0.400587 -0.721976
2010-10-26 08:00:40 51°18.726 2°52.054 16.2547 0.070157 0.400642 -0.652328
2010-10-26 08:00:44 51°18.733 2°52.053 16.2474 0.070157 0.40069 -0.652328
2010-10-26 08:00:50 51°18.744 2°52.051 16.2336 0.070157 0.400731 -0.687152
2010-10-26 08:00:55 51°18.752 2°52.049 16.2319 0.070157 0.400744 -0.687152
2010-10-26 08:01:00 51°18.759 2°52.047 16.2538 0.070157 0.400751 -0.721976
2010-10-26 08:01:04 51°18.766 2°52.046 16.2423 0.070157 0.400751 -0.721976
2010-10-26 08:01:10 51°18.776 2°52.044 16.2449 0.070157 0.400731 -0.687152
2010-10-26 08:01:15 51°18.785 2°52.042 16.2471 0.070157 0.400703 -0.687152
2010-10-26 08:01:20 51°18.793 2°52.04 16.2383 0.070157 0.400662 -0.687152
2010-10-26 08:01:25 51°18.802 2°52.038 16.2581 0.070157 0.400635 -0.687152
2010-10-26 08:01:30 51°18.81 2°52.036 16.2556 0.070157 0.400621 -0.687152
2010-10-26 08:01:35 51°18.818 2°52.034 16.2682 0.070157 0.400621 -0.687152
2010-10-26 08:01:41 51°18.828 2°52.032 16.2493 0.070157 0.400614 -0.721976
2010-10-26 08:01:44 51°18.833 2°52.031 16.2587 0.070157 0.400628 -0.652328
2010-10-26 08:01:50 51°18.843 2°52.029 16.2411 0.070157 0.400642 -0.687152
2010-10-26 08:01:55 51°18.851 2°52.027 16.2561 0.070157 0.400669 -0.687152
2010-10-26 08:02:00 51°18.86 2°52.025 16.2589 0.070157 0.40069 -0.687152
2010-10-26 08:02:04 51°18.867 2°52.024 16.2594 0.070157 0.40069 -0.687152
2010-10-26 08:02:10 51°18.877 2°52.022 16.2563 0.070157 0.400683 -0.652328
2010-10-26 08:02:15 51°18.886 2°52.02 16.2563 0.070157 0.400655 -0.687152
2010-10-26 08:02:20 51°18.894 2°52.017 16.2599 0.070157 0.400635 -0.687152
2010-10-26 08:02:25 51°18.903 2°52.015 16.2722 0.070157 0.400614 -0.687152
2010-10-26 08:02:30 51°18.911 2°52.013 16.2582 0.070157 0.400601 -0.652328
2010-10-26 08:02:35 51°18.92 2°52.011 16.2645 0.070157 0.400601 -0.652328
2010-10-26 08:02:40 51°18.928 2°52.009 16.2711 0.070157 0.400587 -0.652328
2010-10-26 08:02:44 51°18.935 2°52.007 16.2737 0.070157 0.40058 -0.687152
2010-10-26 08:02:50 51°18.945 2°52.005 16.2765 0.070157 0.400601 -0.721976
2010-10-26 08:02:55 51°18.954 2°52.003 16.2603 0.070157 0.400621 -0.687152
2010-10-26 08:03:00 51°18.962 2°52.001 16.2799 0.070157 0.400649 -0.687152
2010-10-26 08:03:04 51°18.968 2°51.999 16.2812 0.070157 0.400649 -0.687152
2010-10-26 08:03:09 51°18.977 2°51.997 16.2725 0.070157 0.400717 -0.721976
2010-10-26 08:03:15 51°18.987 2°51.994 16.2775 0.070157 0.400806 -0.652328
2010-10-26 08:03:20 51°18.995 2°51.992 16.2857 0.070157 0.400902 -0.687152
2010-10-26 08:03:24 51°19.002 2°51.991 16.2874 0.070157 0.400957 -0.721976
2010-10-26 08:03:30 51°19.013 2°51.989 16.284 0.070157 0.400991 -0.652328
2010-10-26 08:03:35 51°19.021 2°51.987 16.2912 0.070157 0.400991 -0.652328
2010-10-26 08:03:40 51°19.03 2°51.985 16.2879 0.070157 0.400998 -0.687152
2010-10-26 08:03:45 51°19.038 2°51.983 16.2762 0.070157 0.400991 -0.687152
2010-10-26 08:03:50 51°19.047 2°51.981 16.2794 0.070157 0.400936 -0.687152
2010-10-26 08:03:55 51°19.055 2°51.979 16.2813 0.070157 0.400902 -0.687152
2010-10-26 08:04:00 51°19.064 2°51.977 16.2859 0.070157 0.400868 -0.652328
2010-10-26 08:04:04 51°19.07 2°51.975 16.2937 0.070157 0.400868 -0.652328
2010-10-26 08:04:10 51°19.08 2°51.973 16.2913 0.070157 0.40084 -0.687152
2010-10-26 08:04:15 51°19.089 2°51.971 16.2812 0.070157 0.400806 -0.721976
2010-10-26 08:04:20 51°19.098 2°51.969 16.3011 0.070157 0.400799 -0.687152
2010-10-26 08:04:24 51°19.104 2°51.967 16.2991 0.070157 0.400772 -0.687152
2010-10-26 08:04:30 51°19.115 2°51.965 16.2864 0.070157 0.400751 -0.687152
2010-10-26 08:04:35 51°19.123 2°51.962 16.2854 0.070157 0.400751 -0.687152
2010-10-26 08:04:40 51°19.131 2°51.96 16.2827 0.070157 0.400738 -0.687152
2010-10-26 08:04:45 51°19.14 2°51.958 16.2809 0.070157 0.400738 -0.687152
2010-10-26 08:04:50 51°19.148 2°51.955 16.2995 0.070053 0.40013 -0.687152
2010-10-26 08:04:55 51°19.156 2°51.953 16.3061 0.070157 0.400744 -0.687152
2010-10-26 08:05:00 51°19.165 2°51.951 16.3064 0.070157 0.400751 -0.652328
2010-10-26 08:05:04 51°19.172 2°51.949 16.3015 0.070157 0.400751 -0.652328
2010-10-26 08:05:10 51°19.182 2°51.946 16.3118 0.070157 0.400758 -0.687152
2010-10-26 08:05:15 51°19.19 2°51.945 16.2977 0.070157 0.400779 -0.652328
2010-10-26 08:05:20 51°19.199 2°51.942 16.2896 0.070157 0.40084 -0.652328
2010-10-26 08:05:24 51°19.205 2°51.941 16.3136 0.070157 0.400888 -0.687152
2010-10-26 08:05:30 51°19.215 2°51.938 16.3163 0.070157 0.400929 -0.652328
2010-10-26 08:05:35 51°19.224 2°51.936 16.3092 0.070157 0.400929 -0.652328
2010-10-26 08:05:40 51°19.232 2°51.933 16.3208 0.070157 0.400964 -0.687152
2010-10-26 08:05:45 51°19.241 2°51.931 16.3209 0.070157 0.400984 -0.721976
2010-10-26 08:05:49 51°19.248 2°51.929 16.2906 0.070157 0.400991 -0.687152
2010-10-26 08:05:55 51°19.258 2°51.926 16.311 0.070157 0.400998 -0.687152
2010-10-26 08:06:00 51°19.266 2°51.924 16.3019 0.070157 0.400991 -0.687152
2010-10-26 08:06:05 51°19.274 2°51.921 16.3112 0.070157 0.400991 -0.687152
2010-10-26 08:06:10 51°19.283 2°51.919 16.2989 0.070157 0.40097 -0.652328
2010-10-26 08:06:15 51°19.291 2°51.917 16.3134 0.070157 0.40097 -0.652328
2010-10-26 08:06:20 51°19.3 2°51.915 16.3175 0.070157 0.400977 -0.687152
2010-10-26 08:06:24 51°19.306 2°51.913 16.3239 0.070157 0.400984 -0.687152
2010-10-26 08:06:31 51°19.318 2°51.91 16.3264 0.070053 0.400369 -0.687152
2010-10-26 08:06:35 51°19.325 2°51.908 16.3144 0.070053 0.400369 -0.687152
2010-10-26 08:06:40 51°19.333 2°51.906 16.3279 0.070157 0.400977 -0.687152
2010-10-26 08:06:45 51°19.342 2°51.903 16.3239 0.070157 0.400943 -0.687152
2010-10-26 08:06:50 51°19.35 2°51.901 16.3294 0.070157 0.400916 -0.652328
2010-10-26 08:06:55 51°19.359 2°51.899 16.326 0.070157 0.400902 -0.721976
2010-10-26 08:07:00 51°19.367 2°51.896 16.3281 0.070157 0.400895 -0.687152
2010-10-26 08:07:05 51°19.375 2°51.894 16.3434 0.070157 0.400895 -0.687152
2010-10-26 08:07:10 51°19.384 2°51.892 16.3174 0.070157 0.400895 -0.687152
2010-10-26 08:07:15 51°19.392 2°51.89 16.335 0.070157 0.400929 -0.687152
2010-10-26 08:07:20 51°19.401 2°51.888 16.3238 0.070157 0.400943 -0.687152
2010-10-26 08:07:24 51°19.407 2°51.886 16.3307 0.070157 0.40097 -0.652328
2010-10-26 08:07:30 51°19.418 2°51.883 16.3185 0.070157 0.400984 -0.687152
2010-10-26 08:07:35 51°19.426 2°51.88 16.3398 0.070157 0.400984 -0.687152
2010-10-26 08:07:40 51°19.435 2°51.878 16.332 0.070157 0.400984 -0.652328
2010-10-26 08:07:44 51°19.442 2°51.876 16.348 0.070157 0.401005 -0.687152
2010-10-26 08:07:49 51°19.45 2°51.873 16.339 0.070157 0.401018 -0.687152
2010-10-26 08:07:55 51°19.46 2°51.871 16.3409 0.070157 0.401053 -0.652328
2010-10-26 08:08:00 51°19.468 2°51.868 16.3458 0.070157 0.401094 -0.687152
2010-10-26 08:08:05 51°19.477 2°51.865 16.336 0.070157 0.401094 -0.687152
2010-10-26 08:08:10 51°19.485 2°51.863 16.3514 0.070157 0.401121 -0.652328
2010-10-26 08:08:15 51°19.493 2°51.861 16.3506 0.070157 0.401128 -0.687152
2010-10-26 08:08:20 51°19.501 2°51.858 16.3491 0.070157 0.401101 -0.687152
2010-10-26 08:08:24 51°19.508 2°51.856 16.3498 0.070157 0.401066 -0.652328
2010-10-26 08:08:30 51°19.518 2°51.853 16.3483 0.070157 0.401018 -0.687152
2010-10-26 08:08:35 51°19.527 2°51.851 16.3525 0.070157 0.401018 -0.687152
2010-10-26 08:08:40 51°19.535 2°51.849 16.3552 0.070157 0.400991 -0.652328
2010-10-26 08:08:44 51°19.542 2°51.847 16.3568 0.070157 0.400964 -0.687152
2010-10-26 08:08:50 51°19.552 2°51.844 16.3463 0.070157 0.40095 -0.687152
2010-10-26 08:08:55 51°19.56 2°51.841 16.3609 0.070157 0.40095 -0.687152
2010-10-26 08:09:01 51°19.57 2°51.839 16.3599 0.070157 0.400957 -0.687152
2010-10-26 08:09:05 51°19.577 2°51.837 16.3325 0.070157 0.400957 -0.687152
2010-10-26 08:09:10 51°19.585 2°51.834 16.3382 0.070157 0.400984 -0.652328
2010-10-26 08:09:15 51°19.594 2°51.832 16.3454 0.070157 0.401005 -0.687152
2010-10-26 08:09:20 51°19.602 2°51.829 16.3433 0.070157 0.401046 -0.652328
2010-10-26 08:09:25 51°19.61 2°51.826 16.3413 0.070157 0.401053 -0.721976
2010-10-26 08:09:30 51°19.619 2°51.824 16.3496 0.070157 0.401025 -0.652328
2010-10-26 08:09:35 51°19.627 2°51.821 16.3673 0.070157 0.401025 -0.652328
2010-10-26 08:09:40 51°19.635 2°51.819 16.365 0.070157 0.400991 -0.652328
2010-10-26 08:09:44 51°19.642 2°51.817 16.3565 0.070157 0.400984 -0.687152
2010-10-26 08:09:50 51°19.652 2°51.814 16.3671 0.070157 0.400991 -0.652328
2010-10-26 08:09:55 51°19.66 2°51.811 16.3679 0.070157 0.400998 -0.687152
2010-10-26 08:10:00 51°19.668 2°51.809 16.3704 0.070157 0.401039 -0.721976
2010-10-26 08:10:04 51°19.675 2°51.807 16.3654 0.070157 0.401039 -0.721976
2010-10-26 08:10:09 51°19.683 2°51.804 16.3638 0.070157 0.401087 -0.687152
2010-10-26 08:10:15 51°19.694 2°51.802 16.3745 0.070157 0.401121 -0.687152
2010-10-26 08:10:20 51°19.702 2°51.8 16.3627 0.070157 0.401135 -0.652328
2010-10-26 08:10:24 51°19.708 2°51.798 16.3589 0.070157 0.401163 -0.652328
2010-10-26 08:10:30 51°19.718 2°51.795 16.3671 0.070157 0.401169 -0.687152
2010-10-26 08:10:35 51°19.727 2°51.793 16.3723 0.070157 0.401169 -0.687152
2010-10-26 08:10:40 51°19.735 2°51.791 16.3765 0.070157 0.401156 -0.687152
2010-10-26 08:10:45 51°19.743 2°51.789 16.3575 0.070157 0.401142 -0.652328
2010-10-26 08:10:50 51°19.752 2°51.786 16.3814 0.070157 0.401135 -0.687152
2010-10-26 08:10:55 51°19.76 2°51.784 16.3813 0.070157 0.401121 -0.687152
2010-10-26 08:11:00 51°19.769 2°51.782 16.3662 0.070157 0.401108 -0.687152
2010-10-26 08:11:05 51°19.777 2°51.78 16.3833 0.070157 0.401108 -0.687152
2010-10-26 08:11:10 51°19.785 2°51.777 16.3738 0.070157 0.401094 -0.687152
2010-10-26 08:11:15 51°19.794 2°51.775 16.3818 0.070157 0.401087 -0.687152
2010-10-26 08:11:20 51°19.802 2°51.773 16.3763 0.070157 0.40108 -0.687152
2010-10-26 08:11:24 51°19.809 2°51.771 16.3893 0.070157 0.401094 -0.687152
2010-10-26 08:11:30 51°19.819 2°51.769 16.3961 0.070157 0.401121 -0.652328
2010-10-26 08:11:35 51°19.827 2°51.767 16.3832 0.070157 0.401121 -0.652328
2010-10-26 08:11:40 51°19.835 2°51.764 16.3807 0.070157 0.401169 -0.687152
2010-10-26 08:11:44 51°19.842 2°51.763 16.3975 0.070157 0.401224 -0.652328
2010-10-26 08:11:50 51°19.852 2°51.76 16.3935 0.070157 0.401252 -0.687152
2010-10-26 08:11:55 51°19.861 2°51.757 16.39 0.070157 0.401259 -0.687152
2010-10-26 08:12:00 51°19.869 2°51.755 16.387 0.070157 0.401272 -0.721976
2010-10-26 08:12:04 51°19.876 2°51.753 16.3979 0.070157 0.401272 -0.721976
2010-10-26 08:12:10 51°19.886 2°51.75 16.3818 0.070157 0.401265 -0.652328
2010-10-26 08:12:15 51°19.894 2°51.748 16.3918 0.070157 0.401245 -0.687152
2010-10-26 08:12:20 51°19.903 2°51.746 16.4005 0.070157 0.401211 -0.652328
2010-10-26 08:12:25 51°19.911 2°51.743 16.3941 0.070157 0.401197 -0.687152
2010-10-26 08:12:30 51°19.919 2°51.741 16.3901 0.070157 0.401176 -0.652328
2010-10-26 08:12:35 51°19.927 2°51.738 16.3915 0.070157 0.401176 -0.652328
2010-10-26 08:12:40 51°19.936 2°51.736 16.4092 0.070157 0.401204 -0.687152
2010-10-26 08:12:44 51°19.943 2°51.735 16.4036 0.070157 0.401252 -0.687152
2010-10-26 08:12:50 51°19.953 2°51.731 16.4133 0.070157 0.401279 -0.687152
2010-10-26 08:12:55 51°19.961 2°51.729 16.3883 0.070157 0.401259 -0.652328
2010-10-26 08:13:00 51°19.969 2°51.726 16.3911 0.070157 0.401259 -0.687152
2010-10-26 08:13:05 51°19.977 2°51.724 16.3937 0.070157 0.401259 -0.687152
2010-10-26 08:13:11 51°19.987 2°51.721 16.4042 0.070157 0.401265 -0.687152
2010-10-26 08:13:15 51°19.994 2°51.719 16.4135 0.070157 0.401293 -0.687152
2010-10-26 08:13:20 51°20.002 2°51.716 16.4141 0.070157 0.401307 -0.687152
2010-10-26 08:13:25 51°20.01 2°51.714 16.4144 0.070157 0.401272 -0.687152
2010-10-26 08:13:30 51°20.019 2°51.711 16.4063 0.070157 0.401238 -0.687152
2010-10-26 08:13:35 51°20.027 2°51.709 16.4007 0.070157 0.401238 -0.687152
2010-10-26 08:13:40 51°20.035 2°51.707 16.4242 0.070157 0.401197 -0.687152
2010-10-26 08:13:44 51°20.042 2°51.705 16.4159 0.070157 0.401163 -0.687152
2010-10-26 08:13:50 51°20.052 2°51.702 16.4223 0.070157 0.40119 -0.687152
2010-10-26 08:13:55 51°20.06 2°51.699 16.4183 0.070157 0.401259 -0.687152
2010-10-26 08:14:00 51°20.069 2°51.696 16.4165 0.070157 0.401355 -0.652328
2010-10-26 08:14:05 51°20.077 2°51.694 16.4249 0.070157 0.401355 -0.652328
2010-10-26 08:14:10 51°20.086 2°51.691 16.4258 0.070157 0.401389 -0.721976
2010-10-26 08:14:15 51°20.094 2°51.688 16.4283 0.070157 0.401423 -0.652328
2010-10-26 08:14:21 51°20.104 2°51.685 16.4183 0.070157 0.401437 -0.721976
2010-10-26 08:14:24 51°20.109 2°51.683 16.4264 0.070157 0.401423 -0.687152
2010-10-26 08:14:29 51°20.117 2°51.68 16.4265 0.070157 0.401396 -0.687152
2010-10-26 08:14:35 51°20.127 2°51.677 16.4353 0.070157 0.401396 -0.687152
2010-10-26 08:14:40 51°20.136 2°51.675 16.4267 0.070157 0.401389 -0.687152
2010-10-26 08:14:44 51°20.142 2°51.673 16.421 0.070157 0.401362 -0.687152
2010-10-26 08:14:50 51°20.152 2°51.67 16.4353 0.070157 0.401348 -0.687152
2010-10-26 08:14:55 51°20.161 2°51.668 16.4278 0.070157 0.401341 -0.687152
2010-10-26 08:15:00 51°20.169 2°51.666 16.4295 0.070157 0.401341 -0.687152
2010-10-26 08:15:05 51°20.178 2°51.663 16.4273 0.070157 0.401341 -0.687152
2010-10-26 08:15:10 51°20.187 2°51.661 16.4423 0.070157 0.401355 -0.687152
2010-10-26 08:15:15 51°20.195 2°51.659 16.4236 0.070157 0.401355 -0.652328
2010-10-26 08:15:20 51°20.203 2°51.657 16.4407 0.070157 0.401341 -0.687152
2010-10-26 08:15:25 51°20.211 2°51.654 16.4485 0.070157 0.40132 -0.687152
2010-10-26 08:15:30 51°20.22 2°51.652 16.4383 0.070157 0.401293 -0.652328
2010-10-26 08:15:35 51°20.228 2°51.65 16.4355 0.070157 0.401293 -0.652328
2010-10-26 08:15:41 51°20.238 2°51.647 16.4315 0.070053 0.400657 -0.687152
2010-10-26 08:15:44 51°20.243 2°51.646 16.4334 0.070157 0.401245 -0.687152
2010-10-26 08:15:50 51°20.253 2°51.643 16.4503 0.070157 0.401224 -0.687152
2010-10-26 08:15:55 51°20.261 2°51.641 16.4517 0.070157 0.40119 -0.652328
2010-10-26 08:16:01 51°20.271 2°51.638 16.4551 0.070157 0.401156 -0.687152
2010-10-26 08:16:04 51°20.276 2°51.637 16.4409 0.070157 0.401156 -0.687152
2010-10-26 08:16:11 51°20.288 2°51.633 16.4344 0.070157 0.401128 -0.687152
2010-10-26 08:16:15 51°20.294 2°51.632 16.4304 0.070157 0.401094 -0.652328
2010-10-26 08:16:20 51°20.303 2°51.629 16.4651 0.070053 0.400478 -0.687152
2010-10-26 08:16:24 51°20.309 2°51.627 16.4499 0.070157 0.401087 -0.652328
2010-10-26 08:16:30 51°20.319 2°51.624 16.4345 0.070157 0.401108 -0.687152
2010-10-26 08:16:35 51°20.328 2°51.621 16.445 0.070157 0.401108 -0.687152
2010-10-26 08:16:40 51°20.336 2°51.619 16.4489 0.070157 0.401176 -0.687152
2010-10-26 08:16:44 51°20.342 2°51.617 16.4609 0.070157 0.401259 -0.687152
2010-10-26 08:16:50 51°20.352 2°51.614 16.4566 0.070157 0.401348 -0.687152
2010-10-26 08:16:56 51°20.362 2°51.61 16.4557 0.070157 0.40141 -0.687152
2010-10-26 08:17:00 51°20.369 2°51.608 16.4585 0.070157 0.40143 -0.687152
2010-10-26 08:17:04 51°20.376 2°51.606 16.4619 0.070157 0.40143 -0.687152
2010-10-26 08:17:10 51°20.386 2°51.603 16.4508 0.070157 0.401437 -0.652328
2010-10-26 08:17:14 51°20.393 2°51.601 16.4483 0.070157 0.401444 -0.721976
2010-10-26 08:17:20 51°20.403 2°51.598 16.4674 0.070157 0.401444 -0.687152
2010-10-26 08:17:25 51°20.411 2°51.596 16.4646 0.070157 0.401458 -0.687152
2010-10-26 08:17:30 51°20.42 2°51.593 16.4596 0.070157 0.40143 -0.652328
2010-10-26 08:17:35 51°20.428 2°51.59 16.4745 0.070157 0.40143 -0.652328
2010-10-26 08:17:40 51°20.437 2°51.588 16.4706 0.070157 0.40141 -0.687152
2010-10-26 08:17:45 51°20.445 2°51.585 16.4725 0.070157 0.401389 -0.652328
2010-10-26 08:17:50 51°20.454 2°51.583 16.4612 0.070157 0.401382 -0.652328
2010-10-26 08:17:55 51°20.462 2°51.58 16.4765 0.070157 0.401375 -0.687152
2010-10-26 08:18:01 51°20.472 2°51.577 16.4656 0.070157 0.401368 -0.687152
2010-10-26 08:18:05 51°20.479 2°51.575 16.4747 0.070157 0.401368 -0.687152
2010-10-26 08:18:10 51°20.488 2°51.573 16.4793 0.070157 0.401368 -0.652328
2010-10-26 08:18:15 51°20.496 2°51.57 16.4814 0.070157 0.401382 -0.687152
2010-10-26 08:18:21 51°20.506 2°51.567 16.4869 0.070157 0.401396 -0.687152
2010-10-26 08:18:25 51°20.513 2°51.565 16.472 0.070157 0.401403 -0.687152
2010-10-26 08:18:30 51°20.522 2°51.563 16.4739 0.070157 0.401403 -0.652328
2010-10-26 08:18:35 51°20.531 2°51.56 16.4842 0.070157 0.401403 -0.652328
2010-10-26 08:18:41 51°20.541 2°51.557 16.4887 0.070157 0.401382 -0.687152
2010-10-26 08:18:45 51°20.548 2°51.555 16.4946 0.070157 0.401355 -0.687152
2010-10-26 08:18:50 51°20.556 2°51.553 16.4865 0.070157 0.401341 -0.652328
2010-10-26 08:18:56 51°20.566 2°51.55 16.4846 0.070157 0.401341 -0.687152
2010-10-26 08:19:01 51°20.574 2°51.548 16.4812 0.070157 0.401389 -0.721976
2010-10-26 08:19:05 51°20.581 2°51.546 16.4803 0.070157 0.401389 -0.721976
2010-10-26 08:19:10 51°20.589 2°51.544 16.4943 0.070157 0.401437 -0.687152
2010-10-26 08:19:15 51°20.598 2°51.542 16.491 0.070157 0.401472 -0.652328
2010-10-26 08:19:21 51°20.608 2°51.538 16.4844 0.070157 0.401485 -0.687152
2010-10-26 08:19:25 51°20.615 2°51.537 16.4975 0.070157 0.401472 -0.652328
2010-10-26 08:19:30 51°20.623 2°51.535 16.5041 0.070157 0.401437 -0.687152
2010-10-26 08:19:35 51°20.631 2°51.533 16.501 0.070157 0.401437 -0.687152
2010-10-26 08:19:41 51°20.641 2°51.53 16.4912 0.070157 0.40143 -0.687152
2010-10-26 08:19:45 51°20.648 2°51.529 16.4884 0.070157 0.401403 -0.687152
2010-10-26 08:19:51 51°20.658 2°51.526 16.482 0.070157 0.40141 -0.687152
2010-10-26 08:19:55 51°20.665 2°51.525 16.4966 0.070157 0.401437 -0.652328
2010-10-26 08:20:01 51°20.675 2°51.522 16.5022 0.070157 0.401437 -0.687152
2010-10-26 08:20:05 51°20.681 2°51.52 16.4958 0.070157 0.401437 -0.687152
2010-10-26 08:20:10 51°20.69 2°51.517 16.504 0.070157 0.401458 -0.687152
2010-10-26 08:20:15 51°20.698 2°51.515 16.5075 0.070157 0.401492 -0.687152
2010-10-26 08:20:21 51°20.708 2°51.511 16.5019 0.070157 0.401547 -0.652328
2010-10-26 08:20:25 51°20.715 2°51.509 16.5048 0.070157 0.401568 -0.687152
2010-10-26 08:20:30 51°20.723 2°51.506 16.5117 0.070157 0.401582 -0.652328
2010-10-26 08:20:35 51°20.732 2°51.504 16.5075 0.070157 0.401582 -0.652328
2010-10-26 08:20:41 51°20.742 2°51.501 16.5061 0.070157 0.401568 -0.687152
2010-10-26 08:20:45 51°20.748 2°51.499 16.5153 0.070157 0.40154 -0.652328
2010-10-26 08:20:50 51°20.757 2°51.496 16.5111 0.070157 0.401513 -0.687152
2010-10-26 08:20:56 51°20.767 2°51.493 16.5103 0.070157 0.401499 -0.687152
2010-10-26 08:21:01 51°20.775 2°51.491 16.4952 0.070157 0.401506 -0.652328
2010-10-26 08:21:05 51°20.782 2°51.488 16.5195 0.070157 0.401506 -0.652328
2010-10-26 08:21:10 51°20.79 2°51.486 16.5144 0.070157 0.40152 -0.652328
2010-10-26 08:21:15 51°20.799 2°51.483 16.505 0.070157 0.401547 -0.687152
2010-10-26 08:21:21 51°20.809 2°51.48 16.5135 0.070157 0.401554 -0.652328
2010-10-26 08:21:25 51°20.816 2°51.478 16.5112 0.070157 0.401547 -0.687152
2010-10-26 08:21:30 51°20.824 2°51.476 16.5235 0.070157 0.401527 -0.687152
2010-10-26 08:21:36 51°20.834 2°51.473 16.5091 0.070157 0.401527 -0.687152
2010-10-26 08:21:41 51°20.842 2°51.471 16.5109 0.070157 0.40152 -0.687152
2010-10-26 08:21:45 51°20.849 2°51.469 16.5222 0.070157 0.401513 -0.652328
2010-10-26 08:21:50 51°20.858 2°51.466 16.5258 0.070157 0.401513 -0.687152
2010-10-26 08:21:56 51°20.868 2°51.465 16.5208 0.070157 0.401533 -0.687152
2010-10-26 08:22:01 51°20.876 2°51.463 16.5245 0.070157 0.401568 -0.652328
2010-10-26 08:22:05 51°20.882 2°51.461 16.535 0.070157 0.401568 -0.652328
2010-10-26 08:22:10 51°20.891 2°51.459 16.5294 0.070157 0.401602 -0.652328
2010-10-26 08:22:15 51°20.899 2°51.457 16.5304 0.070157 0.401602 -0.687152
2010-10-26 08:22:20 51°20.907 2°51.455 16.532 0.070157 0.401588 -0.652328
2010-10-26 08:22:25 51°20.916 2°51.452 16.5249 0.070157 0.401595 -0.652328
2010-10-26 08:22:31 51°20.926 2°51.45 16.528 0.070157 0.401602 -0.687152
2010-10-26 08:22:35 51°20.932 2°51.448 16.5295 0.070157 0.401602 -0.687152